GFSSW_sfc_thetae_000.txt.gz
Theta_e
317 317 317 317 318 318 318 318 317 318 319 319 320 320 321 321 321 320 311 318 321 339 337 331 327 325 325 323 324 322 310 307 309 310 312 317 313 314 314 312 312 314 314 316 319
315 316 316 316 316 317 316 317 317 317 318 319 319 320 320 320 316 311 321 330 335 339 325 324 321 323 320 320 320 315 308 308 313 315 314 316 315 315 310 310 311 312 315 315 317
314 314 315 315 316 316 315 315 316 316 317 317 317 319 320 321 312 310 337 333 337 338 323 325 323 321 316 318 316 314 308 312 313 316 316 314 314 315 311 310 313 312 315 315 316
313 313 313 313 314 314 314 314 315 315 315 315 316 319 320 317 300 319 342 339 338 328 320 321 319 316 314 312 316 310 312 313 314 316 314 312 314 311 311 313 315 315 316 317 316
313 313 313 313 313 313 313 314 314 314 314 314 316 318 316 308 305 319 342 340 331 321 316 316 315 314 310 313 314 311 312 314 316 315 313 313 311 310 311 314 315 315 316 316 317
313 313 313 313 313 313 314 314 314 314 313 314 316 317 312 301 314 315 317 317 317 321 317 317 317 318 314 314 312 313 313 313 314 313 311 309 310 309 313 314 314 314 315 316 316
313 313 313 312 313 313 313 313 312 313 313 315 317 317 308 305 314 319 323 323 320 319 316 317 320 316 316 312 316 314 309 312 311 311 310 310 307 307 314 314 312 313 315 315 317
313 313 313 312 312 312 313 313 313 312 313 316 319 317 304 313 317 314 315 316 322 323 320 321 320 317 315 317 313 309 310 305 311 310 309 308 302 310 314 312 312 313 314 314 316
314 313 313 313 313 312 313 312 312 312 314 319 317 314 304 315 310 314 315 310 312 316 317 320 319 315 314 310 307 308 302 305 307 312 309 308 306 311 314 313 312 313 314 313 315
314 313 312 313 312 312 312 312 312 314 319 320 318 308 309 306 311 313 316 312 312 311 315 315 314 310 310 308 300 303 303 305 305 309 309 308 307 310 312 312 312 313 314 314 314
312 314 313 313 313 312 309 308 308 311 313 305 306 304 306 310 313 311 315 310 311 314 308 312 307 304 308 310 309 307 305 304 308 310 307 308 308 309 312 312 312 314 314 314 315
310 312 313 313 313 312 308 302 304 303 299 308 309 309 310 311 306 309 317 307 307 305 310 308 304 310 311 311 308 307 305 305 308 309 307 307 306 309 311 311 314 314 315 315 316
310 311 312 313 312 309 306 304 309 308 300 302 306 306 308 310 305 308 313 309 306 305 307 305 307 311 310 308 306 306 305 305 304 308 308 306 304 307 310 312 313 315 316 317 316
310 310 311 312 306 309 303 307 309 308 296 299 301 304 307 308 303 311 314 310 308 304 307 307 311 309 308 306 307 303 308 306 305 303 298 306 296 304 308 308 311 314 315 316 316
309 309 310 310 307 304 305 310 308 308 287 303 304 313 308 304 305 305 313 311 305 305 308 306 308 307 305 306 308 304 308 307 306 303 302 302 299 303 307 305 308 311 315 316 317
308 309 309 307 308 309 310 309 307 295 287 298 304 302 303 304 304 307 307 312 311 307 309 308 312 310 308 308 308 309 306 306 305 303 296 301 300 299 304 305 308 311 315 316 316
306 308 308 308 300 310 310 303 293 289 301 297 299 302 302 300 302 304 302 301 301 299 301 305 306 310 311 306 308 307 304 296 295 295 294 301 298 301 306 308 310 312 314 316 316
307 308 307 306 306 309 305 294 287 294 297 302 301 302 299 302 301 302 301 299 304 304 302 299 297 306 309 306 304 304 304 297 290 292 295 301 296 303 308 311 314 316 318 318 316
306 305 305 308 307 305 297 286 289 295 300 299 299 298 299 301 302 301 301 300 302 306 301 300 300 308 309 309 308 304 301 307 300 301 296 299 302 307 310 311 313 315 316 316 316
302 300 301 309 310 300 290 288 292 299 300 301 296 300 297 299 299 300 300 303 302 306 309 305 299 305 307 309 309 307 308 299 300 292 291 296 298 300 304 309 315 315 315 316 316
299 294 303 309 307 293 285 288 293 299 300 298 298 298 300 300 300 300 301 303 305 304 308 307 304 303 306 304 303 303 302 303 304 301 294 293 298 308 307 312 315 317 317 316 316
297 288 305 308 289 288 286 292 294 295 298 297 300 300 300 301 300 301 300 303 306 306 302 308 304 300 301 307 309 307 304 305 298 297 300 298 299 311 312 316 319 319 318 318 318
293 293 306 302 284 285 292 292 295 293 293 295 296 301 303 301 299 302 303 306 306 305 304 307 302 296 298 304 307 303 305 306 306 305 299 296 299 312 314 316 319 320 318 317 318
296 285 293 292 294 291 289 288 288 295 293 294 294 297 299 300 303 301 302 305 306 306 311 309 305 300 296 300 303 301 302 305 305 300 300 300 302 308 311 313 317 320 319 318 318
296 289 292 286 286 291 290 290 288 288 294 295 294 296 299 297 299 299 303 304 305 308 309 310 301 303 303 303 304 303 302 303 302 304 300 302 303 307 311 313 316 321 320 317 316
289 289 290 291 291 289 289 288 288 289 291 291 292 294 298 297 300 298 302 303 302 307 306 311 301 303 301 303 303 301 303 304 304 304 304 305 304 312 314 314 317 319 319 317 316
294 295 290 289 288 286 286 289 289 292 293 295 294 294 294 298 301 304 306 305 306 306 306 306 303 301 296 301 300 297 302 304 305 306 306 302 307 312 311 314 317 319 319 319 318

GFSSW_sfc_thetae_003.txt.gz
Theta_e
315 316 316 317 317 317 317 317 317 318 318 319 319 320 321 321 320 321 312 319 324 338 339 333 330 328 328 323 324 324 312 309 310 310 312 318 315 318 319 316 316 316 316 319 323
314 314 315 315 315 316 316 316 317 317 318 318 319 319 320 321 317 313 323 329 338 340 329 327 323 324 321 320 320 317 311 310 315 315 314 316 316 317 316 315 314 315 318 319 320
314 314 314 314 315 315 315 315 316 316 316 317 317 318 319 320 314 314 340 332 338 337 325 328 326 323 318 320 319 317 312 315 314 315 316 315 315 318 314 312 315 313 315 318 319
314 314 314 314 314 314 314 315 315 315 315 316 316 318 319 318 301 322 339 338 339 326 321 320 321 317 316 315 319 313 316 315 313 314 315 315 317 314 314 315 317 316 316 318 318
314 314 314 314 314 314 314 314 314 314 314 314 316 317 318 311 308 320 343 336 323 318 317 316 316 317 314 316 317 314 314 314 315 315 317 317 314 314 314 317 317 317 317 317 318
314 314 313 313 314 314 314 314 314 314 313 314 316 318 314 302 315 318 323 326 326 320 317 318 318 320 316 315 314 316 316 314 315 315 317 313 314 313 315 316 314 316 317 317 316
315 315 314 313 314 314 314 314 314 314 313 314 316 317 310 306 317 318 316 315 317 317 317 318 319 317 317 313 317 316 311 313 314 314 314 315 310 311 316 317 315 315 316 317 319
315 314 314 314 314 314 314 314 314 313 314 315 316 317 307 315 318 315 318 320 322 322 317 321 319 316 317 318 314 311 312 307 313 314 314 312 305 314 317 316 315 315 317 317 319
314 314 315 314 314 314 314 313 313 313 314 316 318 315 305 318 312 315 316 312 314 318 320 320 319 313 314 310 307 310 304 306 308 315 313 311 307 314 317 316 315 316 316 317 318
312 312 314 314 314 314 313 312 314 312 318 320 316 310 312 307 312 315 317 314 311 312 314 313 313 309 310 308 300 304 306 307 306 312 313 310 309 314 316 316 315 315 317 317 318
310 311 312 313 314 313 311 312 309 309 313 306 307 306 308 312 313 312 315 313 312 309 304 310 307 303 307 310 310 309 308 306 310 313 311 310 310 312 316 316 314 315 315 318 319
310 310 311 312 313 313 312 306 308 308 304 314 312 310 312 312 307 309 317 308 306 303 306 309 304 309 311 310 309 309 307 306 309 312 311 310 309 312 313 313 315 315 315 318 319
308 309 310 311 312 311 309 309 313 312 302 304 308 309 309 311 307 308 312 310 305 303 305 305 308 311 310 309 308 308 306 306 306 310 312 309 306 309 313 314 315 315 317 319 320
308 309 310 310 306 310 308 313 312 312 296 300 304 307 310 310 305 312 314 311 307 302 306 307 312 309 308 307 309 305 310 308 307 306 301 309 298 306 310 310 312 314 316 318 320
309 307 309 309 305 308 309 313 311 309 288 305 307 314 311 306 307 307 314 311 305 304 306 304 307 307 306 308 311 307 311 308 308 305 304 304 301 305 310 307 309 312 315 318 321
309 307 308 307 308 310 313 311 308 295 287 301 307 305 304 305 306 310 307 312 312 306 308 307 312 311 310 311 311 312 308 308 307 305 297 302 301 302 305 306 308 312 314 319 320
310 308 307 308 305 311 312 306 292 289 302 300 302 305 304 302 303 305 303 303 302 299 301 305 307 311 313 309 311 308 305 297 296 297 296 305 301 303 308 309 310 312 316 319 320
310 308 306 307 311 309 307 296 286 294 298 305 304 304 301 304 303 304 302 301 306 305 303 300 298 308 312 310 306 306 305 298 292 294 298 304 298 304 310 311 313 314 317 321 319
308 306 304 306 309 306 298 288 289 296 301 301 303 301 301 304 303 303 302 301 305 307 302 301 302 310 311 312 310 305 302 308 301 302 298 301 305 309 309 311 314 314 318 320 320
304 300 299 306 310 304 290 287 292 298 300 302 298 302 299 301 301 302 302 305 304 307 310 308 301 308 309 311 311 308 310 301 302 293 292 299 300 302 306 309 315 316 318 319 319
301 294 303 306 309 295 284 289 293 299 300 297 298 299 302 302 303 302 302 306 307 306 309 308 307 305 309 306 304 304 303 305 305 302 295 295 299 310 309 313 315 318 319 318 318
297 291 306 308 291 290 286 292 295 295 299 298 298 298 299 303 303 302 302 305 309 309 304 309 308 302 304 310 311 309 305 306 300 298 302 301 302 312 312 315 317 318 319 318 319
295 297 308 306 287 289 293 292 294 295 295 295 296 298 301 300 299 304 305 309 309 308 307 310 305 300 302 306 309 305 306 307 307 307 301 298 300 312 314 315 317 318 319 318 319
294 290 296 298 293 290 291 291 290 297 295 296 296 298 297 297 303 302 304 308 310 309 312 313 308 303 299 302 305 302 304 306 306 301 301 302 304 309 311 313 316 318 320 319 319
297 292 295 287 290 291 290 291 290 289 295 297 295 295 296 296 300 301 305 307 308 309 311 313 304 305 306 306 306 305 304 304 303 304 301 304 305 309 312 313 316 319 321 319 318
291 293 296 293 292 290 291 289 289 290 292 292 292 295 297 296 300 299 303 305 305 307 308 313 305 306 302 305 305 303 305 305 305 305 305 306 306 313 315 315 316 319 319 319 318
300 299 294 288 292 289 288 290 290 292 293 295 295 294 294 297 299 303 305 307 309 306 308 308 305 304 298 303 303 300 304 305 305 306 307 303 309 313 312 313 315 317 319 320 320

GFSSW_sfc_thetae_006.txt.gz
Theta_e
315 315 315 315 315 316 316 316 317 317 318 318 318 319 320 321 319 317 311 316 320 337 337 329 328 328 328 324 324 323 310 307 309 309 311 316 314 319 321 316 317 317 315 319 323
314 315 315 315 315 315 315 316 316 316 317 317 317 318 319 319 314 311 322 332 338 339 324 325 324 326 321 320 320 315 310 309 315 315 312 314 314 316 315 315 315 315 318 320 321
315 315 315 315 315 315 315 315 315 315 316 316 316 317 318 319 311 310 338 337 337 337 320 324 326 324 318 319 317 315 310 314 316 317 315 313 313 316 314 311 315 313 315 318 318
315 315 315 314 314 315 314 314 314 315 315 315 315 317 319 315 299 319 339 340 339 325 318 316 318 318 316 314 317 312 316 316 316 318 314 311 314 314 314 315 318 317 317 318 318
315 315 315 315 314 315 315 315 314 315 314 314 314 316 315 306 306 318 339 337 326 317 314 313 313 317 313 315 316 314 315 316 317 316 315 314 313 314 314 317 318 317 317 317 319
316 316 316 315 315 315 315 314 315 315 314 314 315 316 311 300 313 316 318 324 319 315 313 314 313 316 313 313 313 316 316 315 316 315 315 312 313 314 315 318 316 316 316 317 318
314 315 316 315 315 315 315 314 314 314 314 314 315 314 307 304 315 317 317 316 322 319 313 315 316 314 315 312 317 315 311 312 313 314 312 315 310 311 316 317 316 316 317 318 319
313 313 314 315 316 315 315 314 314 314 314 315 315 311 302 313 316 313 314 314 315 317 318 320 319 314 312 315 313 309 310 304 311 313 314 313 305 313 317 317 316 316 316 317 319
312 312 313 312 313 315 314 314 314 314 315 315 310 306 300 316 310 314 316 311 316 318 319 318 315 312 310 306 305 307 302 304 307 313 312 311 307 313 317 316 317 317 318 317 319
309 312 312 312 312 313 313 314 314 315 314 315 310 304 310 308 311 314 315 314 310 312 310 311 310 307 307 304 297 301 302 304 305 310 312 309 309 313 316 315 317 318 318 318 319
308 310 312 312 312 312 310 310 307 308 307 306 306 303 308 315 317 311 315 311 310 308 302 307 304 301 304 307 306 306 305 304 309 312 310 309 311 312 315 315 316 317 319 320 320
310 308 309 311 311 312 309 304 307 309 301 309 310 308 310 312 306 309 314 307 305 300 304 302 302 306 308 308 305 305 304 304 308 311 310 309 309 312 314 315 316 315 317 319 321
311 309 308 309 311 308 305 305 313 313 300 303 308 310 310 311 306 307 309 308 304 300 301 299 302 308 307 306 304 305 304 305 305 309 310 308 307 310 313 315 316 317 319 320 321
312 310 308 309 305 309 308 312 315 312 293 296 301 305 309 312 305 312 313 308 305 300 301 301 305 306 305 304 306 302 308 308 307 304 299 308 298 308 310 311 313 314 317 318 321
311 311 309 307 305 303 309 313 312 308 284 303 303 313 309 306 307 307 313 309 303 302 302 300 303 303 305 305 308 305 310 308 307 305 303 303 300 303 310 308 310 312 314 318 321
311 311 310 305 305 306 309 313 308 291 283 299 307 304 303 305 306 309 308 310 309 304 305 302 308 307 307 310 310 310 308 308 307 304 297 302 300 301 305 307 309 311 313 318 320
310 310 309 308 300 309 310 305 290 284 298 298 302 304 302 301 302 304 303 301 300 297 298 302 302 307 310 306 310 308 306 297 295 294 294 303 300 303 310 310 310 310 316 320 321
310 309 309 309 307 307 304 295 283 290 292 304 304 304 300 303 302 302 301 299 304 302 299 297 295 303 308 307 305 306 306 298 290 292 295 305 298 303 310 312 312 313 317 321 320
307 307 306 309 308 305 296 283 286 291 297 296 299 297 300 303 303 302 302 301 303 305 299 298 298 307 308 310 309 306 302 307 300 301 296 300 305 310 312 310 311 313 318 320 321
306 303 302 309 308 302 290 285 290 295 296 296 291 297 294 300 300 301 301 305 303 306 309 305 299 306 307 311 311 309 309 300 300 292 291 297 300 301 306 308 313 315 318 321 321
304 293 303 309 308 295 285 287 291 296 296 292 292 293 295 294 299 301 301 304 306 305 308 308 307 304 307 306 304 305 304 304 304 301 295 293 298 312 310 315 316 316 320 321 320
297 288 306 307 291 289 287 292 294 293 296 294 294 294 294 296 296 297 301 305 308 308 304 308 307 301 303 309 311 309 306 306 299 298 301 299 299 314 315 315 319 317 319 319 319
295 297 308 303 286 286 292 291 292 292 293 292 292 295 297 295 293 300 303 308 309 308 306 308 303 299 301 306 309 306 307 308 308 308 302 296 299 314 314 315 316 319 318 318 319
297 288 298 301 297 291 289 289 289 296 294 293 293 295 294 293 297 297 301 307 309 309 311 312 306 302 299 303 307 304 305 306 305 301 300 301 303 309 311 312 314 319 319 318 319
298 292 295 288 290 290 289 290 287 287 295 295 293 293 292 291 293 297 299 298 304 310 311 311 301 306 305 306 306 305 304 304 303 305 300 303 304 308 312 313 315 320 320 318 317
292 293 295 294 293 289 290 289 288 290 292 291 291 293 294 291 293 293 295 298 298 301 308 313 302 306 302 305 306 303 305 305 305 304 304 305 305 313 316 316 316 319 319 317 318
302 301 295 291 291 289 290 290 290 292 294 295 294 292 291 293 297 299 301 301 302 300 302 310 305 303 300 304 303 300 304 305 306 307 306 302 308 313 313 314 316 320 320 319 319

GFSSW_sfc_thetae_009.txt.gz
Theta_e
315 315 315 316 316 316 316 316 316 317 317 317 318 319 319 320 319 314 309 312 316 332 336 326 327 324 322 319 321 320 304 302 304 305 308 311 308 314 317 312 314 313 312 317 320
316 316 315 315 315 316 315 315 315 316 316 317 317 317 318 319 312 307 318 330 330 337 321 321 318 320 315 316 317 313 305 305 311 312 310 310 308 310 312 311 312 312 316 319 319
316 316 316 316 315 316 315 315 315 315 316 315 315 316 318 318 308 304 339 334 333 337 317 317 321 319 314 317 315 313 306 311 312 315 314 312 308 310 309 308 312 310 312 314 315
315 316 316 316 315 316 315 314 314 315 315 315 315 316 317 313 292 313 340 340 338 328 316 313 312 311 312 311 316 309 312 313 313 315 314 310 311 309 310 311 316 314 315 313 312
314 314 315 317 317 316 315 315 315 314 314 314 315 315 311 303 302 313 340 339 333 323 313 310 306 306 305 312 313 311 312 314 315 315 311 312 310 310 310 315 317 314 313 312 311
313 313 313 315 316 316 315 315 315 314 315 314 315 315 308 295 308 312 312 317 319 315 312 310 307 309 307 309 310 313 312 313 314 314 311 310 311 311 311 316 314 312 311 311 310
312 313 313 313 314 315 316 315 314 314 315 315 316 312 302 299 311 312 310 308 315 314 309 311 312 308 307 304 309 309 305 308 310 311 309 312 307 307 312 313 312 310 311 311 312
310 311 312 312 312 313 314 314 314 315 315 316 316 308 296 307 311 308 309 308 311 316 314 314 312 308 305 307 307 303 304 300 307 309 311 309 301 309 313 311 310 312 312 312 312
311 310 310 311 312 312 313 313 313 313 315 316 309 303 293 309 305 309 311 307 309 310 317 318 312 305 305 301 298 300 295 298 303 310 309 307 303 310 312 311 310 311 312 313 311
312 311 310 310 310 312 312 312 311 313 312 313 309 298 302 302 305 310 310 311 308 308 307 305 303 299 299 298 291 294 296 300 301 306 307 305 306 309 311 310 309 310 312 312 314
312 312 311 310 310 310 308 303 300 302 305 301 301 298 304 310 314 310 312 309 307 304 297 305 296 294 299 300 302 300 299 299 304 308 306 306 306 308 310 310 308 309 311 312 313
311 312 311 311 309 310 306 297 300 301 295 304 304 304 305 307 302 307 311 304 301 296 299 297 293 299 304 303 302 301 298 298 303 307 306 306 305 308 311 309 309 309 309 309 313
311 312 312 311 309 304 300 300 305 304 295 300 304 303 305 308 302 303 308 304 300 296 297 293 297 302 303 302 300 301 299 298 299 305 306 303 299 303 309 309 310 311 310 313 313
311 311 311 311 302 301 301 308 308 306 289 291 297 301 304 308 303 310 310 305 301 296 297 295 300 300 301 300 302 297 304 303 302 300 294 303 290 299 304 305 308 309 308 311 313
310 310 311 309 298 295 302 305 308 305 276 295 297 308 304 303 306 306 311 306 298 299 298 295 297 297 297 301 303 300 305 303 303 300 297 297 292 296 303 302 305 305 308 312 313
310 310 310 306 303 300 302 306 303 286 277 292 301 299 297 301 304 308 305 307 305 300 300 298 303 300 299 302 305 306 303 303 302 299 289 296 295 295 299 303 303 305 307 313 313
309 309 308 307 299 305 304 300 285 280 292 291 295 299 297 296 299 302 299 297 295 291 293 298 298 302 303 299 302 304 297 290 287 287 286 298 295 297 303 306 305 308 311 312 314
309 309 307 306 306 306 301 291 279 286 287 294 293 295 293 298 297 299 298 294 298 297 292 291 289 298 302 299 298 299 298 291 284 286 289 299 293 298 307 309 308 312 313 313 313
308 303 302 304 306 305 294 282 281 286 291 291 291 289 292 295 298 297 297 295 297 298 292 291 292 302 303 303 302 299 296 300 293 294 289 293 299 306 307 304 307 312 312 311 312
302 300 299 305 307 300 288 283 286 292 292 292 285 289 285 289 291 293 296 300 298 301 301 296 290 300 302 303 303 301 303 294 292 285 283 292 294 295 300 302 309 311 310 311 312
301 294 300 305 304 293 283 285 289 293 293 289 287 286 288 287 290 290 294 300 302 301 301 299 295 296 300 297 296 298 298 296 295 292 286 285 291 302 302 308 308 311 312 312 312
297 288 304 305 290 288 286 288 293 292 294 292 291 290 288 290 289 289 292 298 304 303 297 300 295 292 297 302 304 302 299 297 293 291 293 292 292 310 310 311 310 313 313 311 312
293 293 304 301 285 284 288 289 291 290 291 291 290 292 292 289 286 291 295 301 303 300 299 300 295 289 292 297 301 300 302 301 298 296 293 290 292 307 310 312 313 312 313 313 311
293 285 292 297 293 288 286 286 286 293 291 292 291 293 289 289 292 290 292 299 300 302 309 305 295 293 291 294 299 298 301 302 298 293 294 296 296 302 307 309 311 311 311 311 311
293 288 292 284 286 288 288 287 285 285 290 291 289 291 289 286 288 289 293 294 298 304 298 300 294 297 298 300 302 301 301 301 299 298 295 297 298 302 305 306 311 312 311 312 310
290 290 292 288 290 288 288 286 286 288 289 288 288 291 292 288 290 288 290 290 291 295 293 296 294 297 296 301 300 301 302 302 302 301 299 300 299 305 309 308 311 312 312 311 312
297 299 293 288 287 287 286 288 288 290 292 293 291 290 290 292 295 296 295 294 294 292 291 292 296 295 291 298 299 294 301 302 302 302 301 296 299 305 306 307 309 311 312 312 313

GFSSW_sfc_thetae_012.txt.gz
Theta_e
317 316 316 317 317 316 315 316 316 316 316 317 317 317 317 318 318 312 303 310 314 333 337 330 328 323 320 316 318 315 302 300 301 303 306 312 305 311 313 310 311 311 311 316 317
316 317 316 316 317 317 315 315 315 316 316 316 316 316 317 318 312 306 316 327 329 335 323 321 316 320 312 313 314 309 302 306 311 309 308 311 308 308 307 308 309 311 316 317 316
314 315 316 316 316 316 316 315 315 315 315 315 315 316 317 316 305 304 330 328 330 334 315 318 319 316 309 311 312 310 306 311 312 313 313 311 311 313 307 304 307 308 313 314 313
313 313 313 314 315 316 317 316 315 315 315 314 315 315 317 312 290 305 337 340 339 327 316 310 308 308 308 307 313 306 312 313 313 315 313 310 313 311 309 309 312 313 315 314 312
312 313 313 313 313 314 316 316 315 315 314 314 315 315 309 303 298 308 331 335 331 321 314 308 305 304 302 308 311 309 311 314 315 314 313 314 311 310 310 313 314 313 314 313 313
310 310 311 312 312 313 314 315 315 315 315 315 315 316 305 290 304 309 309 309 308 317 313 309 305 307 301 304 304 310 311 312 313 312 313 310 311 310 312 314 312 310 311 311 311
312 311 310 310 311 312 313 313 313 314 314 314 316 312 302 297 306 309 305 305 307 314 310 312 311 306 303 300 305 305 304 308 310 309 307 309 306 307 311 312 310 308 309 310 311
313 312 311 310 309 311 312 313 313 312 313 313 316 309 297 306 307 303 302 302 306 308 309 311 312 305 301 302 302 299 298 294 303 306 308 306 300 308 311 309 309 310 308 309 308
313 313 312 312 311 309 311 312 312 312 312 312 308 304 293 308 302 304 307 303 305 306 307 312 307 302 301 297 294 295 292 294 298 305 306 304 302 308 312 311 309 308 309 310 309
312 312 313 312 311 311 310 310 310 310 308 310 309 299 300 299 304 306 305 306 303 305 303 303 304 298 295 293 289 291 292 295 297 302 304 302 302 307 310 309 309 308 309 310 309
311 311 311 312 312 311 306 300 296 299 302 299 298 296 302 305 309 307 308 304 305 302 295 301 298 294 298 298 299 298 296 295 300 304 302 301 303 306 309 307 305 306 307 308 309
311 310 310 311 312 311 303 295 296 298 291 300 302 302 303 305 299 304 309 301 298 293 298 295 293 300 301 299 297 296 295 296 300 303 300 300 301 306 307 307 307 307 307 307 309
311 311 311 311 311 302 298 299 304 301 291 296 300 300 302 304 300 300 306 303 297 294 295 293 296 302 299 298 297 296 295 297 297 301 302 299 298 302 307 307 308 308 308 310 311
310 311 311 311 302 297 295 302 301 305 286 291 296 300 303 304 299 307 308 304 299 293 296 295 299 300 297 295 298 294 301 300 300 298 291 300 289 296 301 303 305 306 305 308 310
310 310 310 310 299 296 297 300 301 299 275 292 294 306 303 299 303 303 309 304 297 297 296 292 295 295 294 295 298 297 302 300 300 297 292 296 290 295 299 300 303 305 307 308 310
310 310 310 305 303 303 304 303 297 284 276 289 296 293 295 298 299 305 304 305 304 298 297 296 300 298 297 299 300 302 300 299 297 295 288 295 293 295 296 301 303 303 308 309 309
309 309 307 306 297 301 302 296 283 279 290 287 289 291 291 294 296 299 298 296 293 289 290 295 295 299 300 295 299 299 293 286 283 286 287 296 293 296 300 303 305 304 307 309 311
309 308 305 304 302 303 297 291 279 284 286 291 291 290 289 291 292 296 296 293 297 294 291 289 287 296 300 297 294 294 294 288 282 283 287 296 290 296 303 306 306 310 310 311 310
306 300 297 300 304 300 294 282 280 284 289 288 289 286 286 289 290 292 294 294 296 296 289 288 290 300 300 300 298 293 290 297 290 291 287 291 296 302 303 305 308 308 310 309 310
300 296 295 301 302 299 288 283 285 290 290 290 283 287 282 285 286 288 290 297 297 299 297 293 288 298 299 300 300 296 299 291 288 285 282 289 291 293 298 302 307 307 307 308 310
295 289 296 302 305 293 283 282 287 291 292 288 286 285 285 285 286 286 288 294 297 298 299 295 291 294 297 294 293 293 293 293 293 291 286 284 289 298 300 303 306 307 308 309 310
291 284 297 303 290 289 285 286 291 290 293 290 290 288 286 288 286 287 287 292 298 297 293 297 290 288 292 297 300 297 293 295 292 288 290 289 289 302 302 308 309 307 310 310 311
287 288 300 302 282 285 287 288 290 289 289 289 288 290 291 288 284 289 292 297 297 295 293 295 292 285 289 292 297 294 296 297 293 292 289 288 289 305 308 309 310 308 309 310 310
287 282 288 295 292 288 285 286 286 291 289 291 290 290 289 288 290 287 289 294 297 296 302 297 292 290 287 291 295 292 295 299 296 289 290 293 294 300 306 308 308 309 309 310 311
287 282 289 279 282 285 284 286 284 284 289 289 287 289 288 285 287 287 290 291 295 297 294 290 288 293 294 296 297 296 296 298 297 296 294 295 296 299 307 308 310 310 309 309 310
289 287 288 284 286 284 286 284 285 287 288 287 286 289 290 286 288 287 289 290 289 293 290 290 286 293 291 296 296 294 297 299 300 298 297 298 297 303 311 312 310 310 310 309 310
297 298 292 287 282 283 283 287 287 289 291 292 291 289 287 290 295 296 296 294 293 290 288 287 288 288 288 295 294 290 295 298 300 301 299 295 298 302 303 309 310 309 310 310 311

GFSSW_sfc_thetae_015.txt.gz
Theta_e
316 316 316 317 317 316 316 315 315 315 316 316 317 317 317 317 317 308 300 309 313 330 336 332 326 323 318 313 315 312 300 298 301 302 304 308 305 312 311 308 309 310 311 314 315
314 314 314 315 316 317 316 316 316 315 315 315 315 316 316 317 310 305 315 325 329 335 321 321 318 318 311 312 312 308 300 302 308 308 306 308 309 311 308 309 307 310 313 316 314
312 313 314 313 314 314 315 315 316 316 315 315 315 315 316 315 302 299 328 327 327 332 315 319 319 315 307 309 309 307 304 309 309 312 311 310 310 314 309 307 307 307 310 312 311
311 311 311 313 313 313 313 313 315 316 316 315 315 315 316 309 288 301 337 341 338 324 312 309 312 309 306 305 311 304 310 311 311 314 310 309 312 311 311 311 315 311 313 312 311
312 312 311 310 311 312 312 312 313 314 315 315 315 315 309 301 295 305 332 329 325 318 310 305 302 305 302 307 309 305 308 311 312 312 312 313 310 311 311 315 316 313 313 312 312
313 313 312 312 311 310 312 313 312 313 313 314 314 315 304 290 302 308 307 306 306 314 312 307 304 306 300 301 301 307 308 309 311 312 312 310 310 311 312 314 313 309 310 312 312
313 313 313 313 312 312 311 311 312 312 312 312 313 310 302 298 307 306 303 302 304 305 307 312 310 306 302 299 302 301 298 301 304 307 307 311 304 306 311 311 309 308 309 311 312
313 312 312 312 313 313 312 312 311 310 311 312 313 307 297 309 310 307 307 303 302 303 306 310 313 305 299 300 301 297 296 293 301 305 307 303 297 306 310 308 308 309 307 309 310
312 312 311 311 311 313 313 312 311 311 310 311 305 303 294 309 304 307 304 299 301 301 303 309 307 300 299 296 291 292 290 292 296 302 302 301 299 305 309 307 306 308 308 307 308
311 311 311 311 311 312 312 311 310 308 307 307 306 298 299 297 302 303 303 303 301 300 299 300 299 295 293 291 287 289 289 293 293 299 300 299 299 304 308 307 307 308 309 307 307
311 311 311 311 311 311 309 299 293 295 300 296 296 294 299 304 307 304 304 300 301 299 291 296 291 292 294 297 297 296 294 293 297 301 299 298 299 302 306 304 305 305 306 307 307
310 310 310 310 310 311 305 293 297 299 291 299 298 300 304 305 298 302 305 297 296 290 295 294 290 296 301 299 297 296 293 293 297 301 298 298 297 302 303 304 305 307 307 305 308
310 310 310 310 310 302 295 297 303 302 290 294 298 297 298 301 297 298 303 300 295 292 292 290 294 299 300 299 296 295 293 293 294 299 300 297 296 299 303 304 307 307 306 307 308
310 310 310 310 301 296 295 300 301 302 284 288 294 297 299 300 295 302 304 302 297 291 293 292 297 297 297 297 296 290 297 297 296 293 289 297 287 294 299 301 303 304 303 305 308
310 309 309 309 301 297 299 301 305 299 273 290 294 304 301 296 299 298 304 301 295 293 293 290 293 293 294 295 297 294 300 298 297 293 290 294 289 293 297 299 301 303 303 305 308
309 309 309 303 299 300 303 302 298 284 275 287 293 291 291 297 297 300 300 301 301 296 294 293 299 297 296 300 299 300 295 295 294 291 286 292 290 290 294 298 301 302 306 306 307
309 309 307 305 294 300 300 294 283 277 289 285 287 290 290 289 294 295 295 293 291 288 288 292 293 297 298 294 296 295 289 282 281 283 284 293 290 294 299 301 303 303 305 306 308
308 307 305 304 300 302 299 286 277 283 284 291 289 289 286 289 288 290 292 291 295 293 290 287 285 294 298 295 293 293 292 285 280 281 285 293 289 294 302 304 305 305 306 308 309
306 297 298 298 302 299 294 276 278 284 288 286 287 285 285 288 288 288 288 290 295 295 287 287 287 297 298 298 296 292 290 295 287 288 285 289 294 299 302 304 305 305 307 307 309
299 296 293 299 302 300 288 280 284 290 289 288 282 286 282 284 285 285 287 293 294 297 295 291 285 295 297 298 297 292 294 286 286 281 281 287 289 292 297 301 304 305 304 306 307
293 289 294 301 304 293 283 282 286 291 290 287 285 284 284 283 286 285 287 291 295 294 296 291 288 291 295 292 291 289 290 288 289 287 282 282 287 296 298 302 303 304 306 306 308
289 283 294 304 289 288 284 287 291 289 291 289 289 287 286 286 285 284 285 289 296 295 290 292 288 286 290 294 298 295 292 291 287 285 288 287 289 299 299 303 305 305 307 307 309
287 285 296 297 282 284 287 288 289 288 288 288 287 290 290 287 283 286 289 295 295 293 290 293 287 284 285 290 293 292 293 294 290 289 287 288 290 302 303 301 306 304 306 308 308
289 282 285 292 289 286 284 284 285 291 288 289 288 290 288 286 289 286 287 291 294 293 299 294 287 287 285 288 292 289 293 293 292 288 289 290 291 299 302 304 305 305 306 308 309
286 282 287 279 281 283 285 285 284 285 288 289 286 287 286 284 286 286 289 290 293 295 293 288 283 290 293 293 293 293 293 293 292 293 291 293 294 299 303 305 306 307 306 307 308
289 287 290 288 285 283 283 285 285 287 288 286 286 288 289 285 287 286 289 290 288 291 291 288 282 288 290 294 293 291 293 294 295 295 295 295 294 302 308 308 307 308 308 308 309
292 297 291 287 282 279 281 286 285 288 290 291 290 288 286 289 293 294 294 293 293 290 288 286 285 284 284 293 291 287 292 293 295 298 298 293 296 300 304 307 308 307 308 309 310

GFSSW_sfc_thetae_018.txt.gz
Theta_e
314 314 313 314 314 315 316 316 316 316 316 316 316 316 316 317 316 307 300 308 312 331 336 329 323 322 318 313 314 310 300 297 299 300 302 305 304 309 312 308 307 310 309 312 314
312 311 312 313 313 313 313 314 315 316 316 316 316 316 316 317 308 304 313 325 329 336 324 319 317 318 309 309 310 307 299 300 305 305 304 305 306 309 308 310 309 310 311 313 313
313 313 312 311 311 311 313 313 313 314 316 316 316 316 316 315 299 296 323 323 326 331 315 319 319 314 307 308 309 306 303 308 307 309 307 308 308 311 308 307 311 308 311 311 311
314 313 313 313 313 311 310 311 313 313 314 314 315 315 316 308 286 299 338 334 339 324 309 314 315 308 304 303 310 302 308 310 310 310 308 308 311 310 312 311 315 315 314 311 309
312 313 313 313 313 312 312 311 311 312 312 313 313 314 309 298 295 302 324 316 319 317 307 305 310 308 303 305 307 303 307 309 311 309 309 311 309 310 310 316 317 315 312 310 310
312 312 312 312 312 312 312 313 312 311 310 312 312 313 304 293 305 303 308 303 303 310 310 305 304 308 302 303 303 305 307 307 307 308 310 309 309 310 313 317 313 310 310 309 310
312 312 312 311 311 312 313 313 312 312 311 310 312 308 300 297 309 310 308 302 301 302 302 310 307 303 300 296 300 299 296 299 301 303 303 307 302 304 311 312 308 309 309 309 310
312 312 311 311 311 311 311 312 312 312 311 312 311 305 293 307 309 307 308 306 307 306 301 307 313 304 298 298 298 295 294 291 298 302 303 303 295 304 308 306 306 307 308 308 308
311 311 311 310 311 311 311 311 311 312 312 311 304 300 291 308 303 307 307 302 303 302 300 306 307 301 298 295 292 291 289 290 293 301 301 300 295 303 305 305 305 307 308 308 308
311 311 311 310 310 311 311 310 310 307 307 306 304 294 297 294 304 303 306 305 300 297 296 296 297 294 292 290 286 288 288 290 291 297 298 295 296 301 304 303 304 305 306 306 307
310 311 311 310 310 310 307 297 294 293 297 293 294 294 296 303 306 303 302 301 300 294 287 293 291 290 292 295 295 293 291 290 293 299 297 295 296 299 303 302 301 303 304 305 305
310 309 309 310 310 310 304 291 296 295 289 297 297 298 301 302 296 299 302 295 293 290 292 291 288 294 297 296 295 294 292 291 295 300 297 296 295 299 301 301 301 304 304 305 305
310 309 309 309 310 299 293 296 300 300 289 293 297 296 297 299 295 295 301 296 292 289 290 288 291 297 296 295 293 293 292 292 293 298 296 294 293 296 302 302 303 304 305 305 305
310 310 310 309 299 295 296 298 301 302 284 287 292 295 297 296 292 300 303 298 293 288 290 289 294 293 293 294 295 290 297 297 296 292 286 294 284 294 297 299 301 303 302 303 305
310 310 310 308 300 296 298 301 301 296 272 288 293 302 298 293 295 295 301 299 293 291 290 288 290 290 290 294 298 294 300 297 295 290 287 289 286 291 295 296 299 302 303 302 305
309 309 308 304 302 300 301 300 295 281 273 286 292 290 289 295 295 298 295 298 299 292 292 290 296 294 293 297 300 301 295 293 292 288 283 289 289 289 292 298 299 301 303 306 306
308 308 306 305 295 298 299 293 281 275 287 284 286 289 289 288 290 292 293 288 289 287 286 290 290 293 296 292 296 296 289 281 279 279 281 291 288 292 296 299 301 301 302 305 306
307 307 302 303 299 301 298 286 275 281 282 289 288 288 285 288 288 289 289 288 291 290 288 285 282 291 296 293 291 293 290 282 277 278 284 291 286 292 300 303 303 304 303 306 306
305 297 294 297 300 302 291 278 276 283 287 285 286 283 284 287 286 287 286 289 291 293 285 286 286 294 296 297 297 291 288 291 285 287 284 286 291 297 300 302 304 303 305 304 306
298 294 292 300 302 298 287 280 282 288 288 287 281 285 281 283 283 284 284 292 291 293 293 289 284 293 295 296 297 293 295 286 286 280 279 285 288 290 296 299 303 303 303 304 306
290 287 293 300 302 292 282 283 286 290 290 285 284 283 283 283 284 283 284 289 291 291 294 290 286 288 293 291 289 287 288 286 288 285 281 280 286 295 297 300 302 303 303 304 306
289 278 293 301 286 287 284 287 291 289 291 289 288 285 284 285 285 284 283 286 293 292 286 290 286 284 288 292 296 294 290 290 286 283 285 286 287 298 299 299 302 303 305 305 307
288 287 294 299 281 281 286 286 289 287 288 287 286 288 288 286 282 286 287 294 292 291 288 291 285 281 283 288 292 291 291 290 288 287 285 283 285 300 302 302 302 303 305 306 307
289 280 284 290 287 285 282 283 283 290 288 288 286 288 286 285 288 285 286 290 292 292 297 295 285 284 282 285 289 288 291 292 287 282 286 290 290 297 302 300 302 303 304 306 307
285 281 285 279 280 284 281 283 282 283 289 289 285 286 285 283 285 286 289 290 292 294 294 289 281 286 287 290 291 290 291 291 289 290 287 290 291 295 300 302 303 304 305 306 307
285 285 291 287 285 281 282 281 283 285 286 285 284 287 287 284 286 284 287 289 288 291 291 290 281 285 284 291 292 290 291 292 292 292 292 292 292 298 302 305 304 305 306 307 308
289 291 291 287 283 283 284 283 284 286 288 290 288 286 284 287 291 292 292 293 292 290 288 287 283 281 279 286 289 285 291 291 292 294 293 290 296 298 302 305 305 305 307 308 309

GFSSW_sfc_thetae_021.txt.gz
Theta_e
313 313 312 311 312 312 313 313 314 315 316 317 317 317 317 317 317 308 300 309 313 328 335 327 323 322 321 317 320 317 309 303 304 305 307 313 312 315 317 317 316 318 319 321 321
314 313 313 313 313 311 311 311 312 313 314 315 317 316 316 317 309 304 313 322 328 334 322 316 312 318 315 316 317 313 308 306 310 310 309 312 312 314 314 315 316 318 322 321 320
313 313 314 314 314 313 312 312 311 312 312 313 314 315 315 315 299 299 330 326 324 332 315 315 315 316 312 315 314 313 307 311 312 313 313 312 313 316 313 311 315 315 318 322 323
312 313 313 312 313 312 312 312 312 312 311 312 313 313 315 310 293 310 322 323 335 321 312 308 312 311 308 308 313 308 312 313 314 315 314 312 315 313 315 315 319 320 321 321 322
312 312 312 312 311 311 311 311 313 313 312 311 311 312 309 301 298 305 316 315 314 318 309 307 308 307 304 307 309 309 311 314 315 315 315 315 312 312 313 317 319 320 321 321 321
310 311 311 312 310 311 310 311 312 312 312 311 311 311 302 291 308 310 310 309 304 309 310 307 309 311 308 307 306 309 310 311 313 313 313 311 310 312 314 318 317 318 318 318 319
310 311 311 311 310 310 310 311 312 311 312 312 312 307 300 295 308 310 309 307 306 304 303 310 309 307 307 305 310 309 305 308 309 310 310 310 304 305 312 314 313 314 316 317 319
311 311 311 311 311 310 311 312 311 311 312 313 313 305 295 306 310 307 309 307 309 309 305 306 310 306 304 306 303 301 301 297 303 305 306 305 298 307 311 311 311 312 314 315 318
311 311 311 311 311 311 311 311 311 311 311 311 306 301 293 307 302 307 309 303 306 307 306 306 306 304 303 299 297 298 295 296 299 304 304 304 301 306 310 309 309 311 312 314 316
311 311 310 310 310 310 311 310 309 308 307 307 305 295 297 296 304 305 309 307 303 303 301 300 301 299 299 296 290 293 293 296 296 301 302 301 301 305 307 309 309 311 312 314 315
310 310 310 309 309 310 307 302 300 297 299 296 295 295 297 302 305 301 305 304 303 298 294 297 294 293 296 297 298 299 297 296 300 302 300 300 300 304 308 309 309 310 312 314 316
310 310 310 310 309 308 304 297 297 298 291 298 297 298 301 302 295 299 304 297 296 291 295 293 290 297 300 298 296 296 295 296 299 301 300 300 300 304 306 307 309 309 312 314 315
310 310 310 310 310 303 300 299 304 304 291 294 297 296 298 300 295 296 300 298 294 292 292 292 295 297 296 297 294 295 294 295 295 299 301 300 298 301 306 308 309 311 313 314 315
310 310 310 309 302 301 298 303 305 304 286 288 292 296 299 299 293 301 301 298 295 291 293 293 298 295 294 294 296 292 298 297 296 294 291 300 291 300 303 304 306 310 312 314 315
309 309 309 307 301 297 300 305 305 300 273 289 294 304 300 295 296 298 303 298 293 293 293 291 293 293 292 293 298 295 299 297 296 295 295 296 292 296 302 301 304 308 312 314 314
309 309 308 304 303 302 305 304 300 284 273 286 292 291 291 294 294 297 297 299 299 295 295 295 298 297 296 297 299 300 299 298 298 296 289 294 293 293 298 301 304 310 312 313 315
308 308 306 304 297 304 304 299 282 276 287 285 287 290 289 289 291 291 292 291 289 287 289 293 293 296 297 295 298 299 296 289 287 287 286 296 293 294 302 305 307 309 313 314 316
308 306 303 304 305 305 300 289 275 281 283 290 288 288 285 289 287 288 289 290 293 292 291 288 286 294 297 295 294 296 296 290 283 285 289 295 290 294 305 308 309 311 312 314 315
305 302 301 303 303 304 293 279 279 283 287 286 287 283 284 287 286 286 287 288 293 293 287 289 289 298 298 299 299 295 293 299 292 294 291 293 296 302 307 307 309 309 311 313 315
299 297 297 302 304 300 289 281 283 288 289 288 281 285 281 284 284 284 284 289 288 293 295 292 288 296 297 299 299 298 300 291 293 285 284 291 293 296 302 305 309 311 312 313 315
296 293 298 306 303 292 284 284 287 291 291 286 284 283 284 283 285 284 284 288 291 291 294 294 292 293 296 294 293 294 294 295 296 293 287 286 291 306 307 309 310 314 313 314 315
294 289 299 304 290 288 284 287 290 289 292 289 289 287 285 285 284 285 284 287 292 292 288 293 293 289 292 298 300 298 296 296 290 289 293 292 293 305 309 309 312 313 313 315 316
290 289 300 302 283 284 287 286 289 288 288 288 287 288 289 286 283 287 288 293 293 291 288 292 291 287 289 294 298 295 296 298 297 297 291 289 293 305 309 309 310 313 313 314 316
293 285 292 294 292 286 284 284 285 291 289 290 289 290 288 286 289 286 287 291 293 292 295 295 289 288 287 291 294 292 294 296 296 291 291 292 294 302 305 308 310 312 314 315 316
292 287 289 283 287 287 286 285 284 284 289 290 288 288 287 284 286 286 288 290 293 294 294 292 285 288 290 291 292 293 294 294 293 294 291 293 295 301 304 309 312 313 314 314 315
290 290 292 288 288 286 286 284 284 286 287 285 286 288 288 285 286 284 288 288 289 292 292 293 287 289 289 292 293 292 295 295 295 296 296 297 298 304 307 311 311 312 313 314 316
293 295 292 288 286 285 285 286 286 288 290 290 289 287 286 289 292 293 293 293 292 290 290 290 289 287 287 290 292 289 294 295 296 297 297 294 300 305 307 310 313 314 315 315 317

GFSSW_sfc_thetae_024.txt.gz
Theta_e
315 315 314 314 314 314 313 312 312 313 314 314 315 317 317 317 317 314 305 312 316 330 330 326 324 325 324 320 324 323 311 308 310 310 311 317 315 319 322 320 321 322 322 325 328
313 313 314 314 314 314 314 313 313 312 312 313 314 315 315 316 313 309 320 322 329 331 314 318 316 317 318 319 321 318 311 310 315 315 314 316 316 317 316 318 318 321 325 326 328
313 313 313 313 313 312 312 312 313 313 313 312 313 314 314 315 307 306 326 329 326 327 311 315 316 314 312 316 318 317 311 316 317 318 318 316 316 319 316 314 318 318 321 324 326
312 312 312 313 312 312 312 311 312 313 314 313 312 312 314 312 296 317 319 323 330 332 314 311 312 310 310 309 316 312 316 317 318 318 317 315 319 316 318 318 322 323 324 323 324
311 311 311 312 312 311 311 311 311 312 312 313 313 311 311 303 302 313 320 321 314 319 312 311 310 310 310 312 312 311 314 316 317 318 318 319 316 316 317 320 322 322 322 323 324
311 311 311 312 312 311 310 310 311 312 312 312 312 312 306 295 309 313 313 313 311 313 314 312 309 313 313 313 311 313 312 312 314 315 317 314 315 316 317 318 319 320 319 320 321
311 311 311 311 311 311 311 312 312 312 312 313 313 310 303 300 310 312 311 310 311 309 307 314 313 311 313 310 315 313 309 311 312 314 312 315 310 311 317 317 317 317 318 319 320
312 312 311 311 311 311 311 312 312 312 312 313 313 308 299 309 312 309 311 309 311 312 309 310 314 311 311 313 309 307 309 304 311 312 313 312 305 312 316 315 314 315 316 317 320
311 311 311 311 310 310 311 311 311 312 312 313 310 306 297 310 304 308 310 305 308 310 311 309 308 307 307 302 302 305 300 303 306 312 310 309 306 312 316 314 313 314 316 317 318
311 311 311 311 311 311 311 310 311 310 310 312 308 299 302 297 304 308 310 310 306 306 305 303 303 301 302 301 295 299 300 302 303 310 307 306 306 311 314 313 312 315 316 317 318
310 311 311 311 311 311 309 307 303 301 303 299 298 299 299 303 305 304 306 307 306 304 298 301 296 295 299 302 303 303 303 302 306 309 307 306 306 310 313 312 312 314 316 317 318
310 310 310 311 310 310 308 301 300 302 294 300 300 300 301 302 296 300 305 300 301 296 300 299 294 301 303 303 302 301 300 301 305 308 307 305 305 309 312 312 313 314 315 317 318
310 309 310 310 310 308 304 302 308 307 294 296 299 298 300 302 297 297 301 300 297 296 297 296 298 302 301 300 299 300 299 299 300 305 307 304 302 305 310 313 314 315 317 317 317
310 310 310 309 305 306 302 307 308 308 288 290 295 299 302 302 296 305 305 299 297 295 297 297 302 300 299 298 300 297 302 301 300 299 295 304 294 303 307 310 312 314 315 316 317
310 309 309 308 304 301 303 308 309 304 276 291 296 306 302 298 299 300 307 301 293 296 298 295 297 298 298 298 301 299 303 301 301 299 298 298 296 301 307 306 309 313 315 316 320
310 309 308 308 306 306 308 308 305 286 276 287 295 294 294 296 296 299 299 304 301 294 298 298 303 300 300 302 302 303 301 300 301 299 292 298 297 298 303 307 310 312 313 316 321
309 308 307 308 301 308 309 302 286 279 289 286 289 292 292 291 292 295 293 295 292 288 288 295 297 300 301 299 302 301 298 292 291 291 291 301 298 301 308 310 310 311 314 320 322
307 305 304 309 308 307 304 291 279 284 284 291 290 290 287 290 291 291 291 290 297 294 290 288 289 297 301 299 297 298 299 294 288 290 294 301 295 301 308 311 312 312 316 321 322
305 309 307 308 308 308 297 283 283 286 289 287 289 285 286 289 289 289 288 287 291 297 290 290 291 301 300 301 302 298 296 303 297 298 295 299 301 305 308 308 311 313 314 318 322
304 305 304 310 311 304 291 284 287 291 291 290 284 286 282 286 286 287 287 291 289 294 299 295 290 299 299 302 302 301 304 296 298 290 289 296 298 300 305 306 311 314 315 319 323
304 298 305 310 310 297 286 287 290 293 293 289 287 286 286 286 287 286 286 290 291 291 297 297 294 296 299 297 297 299 298 300 300 298 292 291 296 305 307 310 312 315 319 321 322
301 295 305 309 294 294 287 289 292 292 294 291 291 289 287 288 287 287 286 289 294 293 289 297 296 292 295 301 303 302 300 300 295 294 297 296 296 310 311 314 316 318 320 322 323
297 297 306 305 287 288 290 290 291 291 291 290 289 291 292 289 285 288 290 294 294 293 290 294 293 290 293 298 301 299 300 302 302 302 296 293 296 310 313 313 315 318 319 321 322
298 292 299 300 295 289 287 288 288 292 291 292 291 293 291 289 291 288 289 293 294 294 295 296 294 293 290 294 298 296 298 301 300 296 297 296 299 306 310 313 315 319 320 321 322
298 293 294 289 291 290 289 288 286 286 291 293 290 290 288 286 288 286 289 291 294 295 295 294 291 295 296 295 296 298 298 299 298 300 296 298 298 303 310 311 315 319 320 320 321
295 292 293 292 291 288 289 288 288 289 290 288 289 291 291 288 288 287 289 290 287 292 292 295 290 295 292 296 296 295 298 299 299 300 300 300 299 307 309 310 311 316 319 320 321
298 300 294 290 289 287 289 289 288 289 292 292 290 290 289 292 295 296 297 296 293 291 291 292 291 292 289 296 295 292 297 299 300 301 301 297 302 308 308 308 312 317 319 320 322

GFSSW_sfc_thetae_027.txt.gz
Theta_e
314 314 314 314 314 314 314 314 314 314 314 314 313 314 315 316 316 316 311 316 319 329 331 327 326 325 326 320 319 321 310 308 310 311 313 319 317 322 323 321 322 323 323 326 329
313 313 313 313 313 313 313 313 313 314 314 315 314 314 314 316 313 310 321 326 330 333 313 316 319 319 318 321 319 316 313 312 317 316 315 318 318 319 319 319 319 321 325 327 328
312 312 313 313 313 313 312 312 313 313 314 314 314 314 313 314 308 308 327 329 328 327 313 315 321 319 314 316 318 317 312 318 318 320 320 318 318 321 318 316 319 319 322 325 327
311 312 312 313 313 313 312 312 312 312 313 313 314 314 314 312 298 318 320 322 326 322 314 310 311 312 311 310 315 312 317 319 319 320 319 317 320 318 319 320 324 323 325 325 325
311 312 312 312 312 312 313 312 312 312 312 313 313 313 311 305 305 318 323 323 318 320 319 312 308 310 311 312 314 312 314 317 318 318 319 320 317 318 319 323 325 324 324 323 324
311 312 312 312 312 312 313 312 313 313 312 313 313 313 308 297 313 314 314 314 316 315 318 316 312 314 313 314 313 315 316 316 317 316 318 316 316 317 320 323 322 322 322 323 323
311 311 312 312 312 311 312 312 312 312 312 313 313 312 305 302 311 312 313 312 313 312 310 316 316 313 314 311 316 315 311 314 315 316 314 316 311 313 319 321 320 320 321 322 322
311 312 311 311 311 312 312 312 312 312 313 314 314 311 301 310 312 309 310 309 312 313 313 314 316 314 312 315 313 309 311 305 312 314 315 314 307 315 319 319 318 319 319 320 321
312 312 311 311 312 312 313 312 312 313 313 313 311 308 300 313 307 309 310 306 309 311 312 313 311 308 310 305 304 308 302 305 307 314 313 312 308 315 319 318 317 318 319 319 320
312 311 311 311 311 312 311 311 313 312 312 314 311 302 305 300 304 308 312 310 306 307 307 307 305 302 303 303 297 301 302 304 304 310 312 310 310 314 317 315 315 317 318 318 319
311 311 311 311 311 310 310 310 305 304 308 302 300 301 302 305 307 304 307 306 307 304 299 304 299 295 299 303 305 305 304 304 307 311 309 308 309 312 315 315 315 316 318 318 319
310 311 311 311 311 311 310 303 303 303 296 302 301 301 303 304 297 301 305 300 301 298 300 300 296 301 303 304 303 302 302 302 307 310 309 308 308 312 314 314 315 315 317 318 319
311 311 310 311 310 309 306 305 309 308 295 297 301 300 301 303 298 298 302 300 296 297 299 296 300 303 302 301 300 301 300 302 303 308 309 308 305 307 311 314 315 316 317 318 319
311 311 311 310 306 308 304 308 309 309 290 292 296 299 302 303 298 304 305 300 297 294 298 298 302 301 300 299 301 298 304 304 304 303 298 306 297 305 309 310 312 314 316 318 320
310 310 310 309 307 304 306 310 310 305 278 293 296 307 303 299 300 301 308 302 294 294 296 294 298 298 298 300 303 300 305 304 304 301 301 301 298 302 307 306 309 314 316 319 320
310 309 308 310 310 309 311 310 306 288 278 290 296 294 296 299 298 301 301 305 303 296 296 297 302 302 301 303 304 305 302 303 304 301 294 300 299 300 303 307 311 314 316 318 319
310 308 307 310 304 311 310 302 286 281 290 287 289 293 292 293 294 296 294 295 293 290 289 293 296 301 304 300 303 303 300 293 292 293 293 301 298 302 308 312 313 313 316 317 319
308 306 307 311 309 311 306 292 282 286 287 292 292 291 288 291 292 293 292 290 295 294 293 288 286 296 302 300 299 300 300 294 288 291 294 301 296 302 313 314 314 315 316 321 324
306 311 307 311 312 309 297 285 284 288 291 289 291 287 288 290 290 291 291 290 293 295 290 291 289 298 300 303 302 299 298 303 298 301 296 301 304 310 313 312 313 312 314 322 324
308 306 307 311 312 306 295 286 289 293 293 292 285 289 285 287 287 289 288 294 291 294 295 295 290 296 299 303 303 301 305 296 299 291 291 298 301 302 307 309 311 312 314 320 325
306 301 309 312 310 300 289 289 291 294 295 291 288 287 288 287 289 287 288 293 294 293 296 295 292 295 298 298 297 298 299 300 301 299 294 294 298 310 309 311 312 315 316 320 325
305 296 307 310 296 297 290 292 294 293 295 293 293 291 289 290 288 288 288 292 296 295 292 297 294 290 295 301 303 302 301 301 298 296 300 299 298 311 312 314 317 317 318 324 325
300 301 309 307 290 291 293 293 293 292 292 292 290 293 294 291 286 290 291 295 295 293 293 296 293 287 291 299 301 299 301 303 303 304 299 296 299 312 314 315 317 320 322 324 325
302 294 301 304 297 291 290 291 290 295 293 293 292 294 290 290 293 290 290 293 295 295 297 295 293 292 288 294 299 297 299 302 303 298 300 300 302 308 312 314 318 320 322 323 324
302 296 297 292 293 291 292 291 289 289 295 295 292 291 291 287 289 289 291 293 294 296 294 293 290 293 293 296 298 299 299 301 301 302 300 302 302 308 313 315 318 321 322 322 322
297 295 298 295 294 291 291 290 289 291 292 291 291 292 292 290 291 288 290 292 289 292 293 294 290 295 289 294 297 297 300 301 302 303 303 304 303 310 315 314 315 319 321 321 322
305 301 296 293 294 291 292 290 290 292 294 295 293 292 291 293 296 298 298 297 295 293 292 291 293 293 287 292 293 293 299 301 302 305 304 300 303 309 309 310 311 318 320 321 323

GFSSW_sfc_thetae_030.txt.gz
Theta_e
313 313 313 314 314 314 313 313 314 314 314 315 316 315 315 315 315 312 308 315 321 332 330 324 329 326 328 325 322 317 305 304 307 309 311 317 315 320 322 319 321 323 322 325 328
312 312 313 313 312 313 313 313 313 313 313 314 315 315 316 316 309 307 317 331 332 335 314 313 317 321 317 318 319 312 306 307 313 314 314 317 317 318 318 318 319 320 324 326 327
311 312 313 313 313 313 313 313 312 313 313 313 314 314 315 314 307 306 326 332 334 330 313 315 315 317 313 314 315 315 308 312 314 318 319 317 317 320 317 315 319 318 321 324 325
312 313 313 313 313 313 313 313 313 313 313 313 313 314 315 311 296 312 327 324 325 315 311 309 308 307 311 310 314 308 315 315 316 318 318 316 319 317 318 319 323 324 324 325 325
311 312 312 312 312 313 313 312 313 313 313 313 313 313 310 301 303 315 329 326 316 313 310 308 305 306 305 311 313 310 311 314 317 318 318 318 316 315 317 321 324 324 324 324 325
311 312 312 312 312 313 313 313 313 313 312 312 313 312 306 294 310 313 314 314 313 313 313 315 310 310 308 308 309 313 313 313 315 315 316 314 315 315 317 322 321 322 322 324 324
313 313 312 312 312 313 313 313 313 313 313 313 313 311 303 300 310 312 311 310 313 312 311 315 318 313 311 307 312 311 309 312 313 314 314 316 311 312 318 319 319 319 321 322 324
312 312 311 311 312 313 313 313 313 313 313 314 314 310 299 308 311 309 309 308 309 311 310 312 314 310 310 312 310 307 307 303 311 313 314 313 306 315 318 317 317 319 320 321 323
312 312 311 311 311 312 312 312 313 313 314 315 310 306 298 313 306 310 309 304 306 307 309 311 309 306 307 304 302 305 300 302 306 312 312 312 307 314 318 317 317 319 320 321 322
312 311 311 311 311 312 311 311 313 312 312 313 311 302 306 303 307 307 311 309 304 304 304 305 304 300 301 299 295 298 299 302 303 309 311 309 309 314 317 317 317 318 319 319 319
311 311 311 312 312 311 309 309 303 302 307 303 303 303 304 307 307 304 306 305 305 304 296 301 297 294 297 300 301 302 302 301 306 310 308 308 308 311 315 315 315 317 318 319 321
311 311 311 311 311 311 309 304 303 304 295 302 301 301 303 303 297 301 306 298 298 295 300 296 294 300 301 301 300 299 299 300 306 309 308 307 307 312 314 315 316 316 318 319 320
311 311 311 310 310 309 307 305 309 307 296 297 300 299 300 302 297 298 302 298 295 293 296 293 297 301 300 299 298 299 298 300 300 305 307 306 304 308 312 315 316 317 318 319 319
310 310 310 309 306 307 305 308 309 308 289 292 295 299 301 301 296 304 304 299 295 291 294 295 300 298 298 298 300 296 301 301 301 299 296 305 295 306 310 311 313 315 316 317 319
310 310 310 308 307 304 306 310 310 304 278 295 298 307 303 299 301 301 307 300 293 293 293 291 294 296 295 298 301 298 302 301 301 299 300 299 298 302 308 307 310 313 315 317 320
310 310 309 310 309 310 310 310 305 287 278 289 296 293 294 297 298 301 301 305 301 295 295 293 298 297 298 300 301 304 300 300 301 300 293 299 298 298 302 307 310 313 315 317 319
309 309 307 310 304 310 310 303 287 280 292 286 289 292 292 291 293 296 295 294 292 288 289 293 293 296 299 296 301 300 299 291 290 291 290 300 297 300 307 310 311 312 316 318 321
307 306 310 311 311 311 306 294 280 286 287 293 291 291 289 292 291 292 292 290 295 293 290 287 287 293 297 296 296 298 298 292 285 288 291 299 294 300 310 313 314 314 316 319 322
305 312 310 310 312 310 300 286 282 287 290 289 290 288 287 291 291 291 290 289 292 294 288 288 289 299 298 298 299 297 294 301 296 297 293 297 302 307 311 311 314 313 316 320 326
305 308 307 313 312 305 295 287 289 293 292 291 285 288 285 288 287 289 289 293 293 295 297 291 285 294 299 299 299 299 302 294 297 288 288 294 298 300 307 309 314 313 314 323 326
306 302 310 311 310 300 289 290 292 295 294 290 288 287 288 288 289 287 288 291 296 295 296 294 290 289 296 295 292 296 295 298 300 296 291 291 296 312 310 313 312 313 315 323 325
306 297 309 312 298 298 292 293 295 294 295 292 293 291 289 290 288 289 289 292 297 297 291 294 291 287 290 299 300 299 297 298 294 293 297 297 297 313 312 314 316 314 316 324 325
302 301 310 307 292 292 294 293 295 293 293 293 291 293 294 290 286 288 290 296 296 294 293 295 291 285 287 293 299 296 299 301 302 303 297 294 297 313 312 313 316 317 317 324 325
303 296 300 301 300 292 291 291 290 297 295 295 293 294 291 289 292 289 288 294 297 296 298 296 290 288 284 289 293 293 298 299 300 296 297 299 301 307 311 313 318 319 323 323 324
302 298 299 292 294 294 293 291 290 289 294 295 292 292 291 287 288 289 292 293 296 296 296 293 285 289 291 291 292 293 296 298 298 301 297 300 303 307 312 316 318 323 323 322 323
299 295 298 294 296 294 293 291 290 292 292 290 291 293 293 289 290 288 291 292 291 295 291 294 287 290 289 292 291 289 294 298 300 301 302 302 304 313 317 318 319 320 321 321 322
303 303 297 294 295 293 292 291 292 293 295 294 294 293 292 293 296 297 297 297 295 293 292 292 290 288 285 291 290 287 295 298 301 304 304 300 307 314 311 312 318 320 321 321 322

GFSSW_sfc_thetae_033.txt.gz
Theta_e
312 312 312 313 313 312 313 314 314 314 314 315 315 315 316 316 316 309 303 311 317 327 330 321 327 323 322 320 322 321 301 297 300 303 306 314 311 317 320 317 318 320 320 323 324
312 312 312 312 312 312 313 313 314 313 314 314 314 315 315 316 308 304 314 327 329 336 316 309 307 321 317 315 319 315 302 301 307 308 308 312 313 315 316 316 316 318 322 324 322
312 312 313 313 312 313 313 313 313 314 313 313 314 314 315 314 303 302 329 329 327 333 313 312 310 309 310 311 312 311 305 309 309 311 312 312 314 318 314 312 315 315 319 322 321
312 312 313 313 313 313 313 313 313 313 313 313 313 313 314 308 291 307 330 333 334 322 311 307 304 299 298 303 310 304 311 312 312 313 312 311 315 314 315 313 317 319 321 321 320
312 313 313 313 313 313 313 313 313 313 313 313 313 313 307 298 298 308 330 326 312 311 307 304 300 298 295 299 307 306 307 310 313 314 314 315 313 313 314 318 318 319 320 317 317
312 312 312 312 312 313 313 313 313 313 313 313 313 313 303 291 305 307 309 310 313 307 305 305 302 304 300 300 300 306 309 310 311 310 311 310 311 312 314 317 316 317 316 316 317
313 313 312 312 312 312 313 313 312 313 312 313 314 310 300 296 305 306 306 304 305 306 306 310 311 307 304 300 305 304 301 305 307 310 309 311 306 308 314 315 315 314 315 316 316
313 312 312 312 312 313 313 313 312 313 313 314 315 307 295 306 307 304 305 304 306 306 305 306 307 302 301 304 305 302 301 296 303 306 309 309 301 309 313 313 313 315 316 315 315
311 312 312 311 312 312 313 312 313 314 314 314 308 303 294 311 304 306 305 302 303 304 304 307 303 299 300 295 293 297 293 296 299 307 306 306 302 310 313 313 312 314 314 315 315
311 311 311 312 311 312 311 311 312 313 311 311 309 299 302 301 307 307 308 306 303 301 299 298 296 294 294 292 287 291 294 297 297 303 305 303 303 308 311 311 311 312 314 315 315
311 311 311 311 311 311 308 303 299 298 302 297 298 301 304 308 310 303 305 304 303 299 290 294 290 289 292 294 296 297 297 296 300 304 302 302 303 306 310 308 308 309 310 311 313
310 310 311 311 311 310 305 300 300 298 291 299 299 299 302 302 296 299 303 295 295 290 295 292 287 294 297 297 295 295 292 292 299 304 302 302 301 306 309 308 309 310 311 310 312
310 310 311 311 310 306 303 302 305 303 290 294 298 297 298 300 295 296 299 296 292 289 290 289 292 297 296 295 294 293 292 293 293 298 300 299 297 300 305 307 310 310 310 311 312
309 310 310 310 304 304 301 306 305 303 284 290 297 300 301 299 293 301 301 297 293 288 289 288 294 295 293 293 295 290 297 297 296 294 289 297 288 297 301 303 306 309 308 309 309
309 310 310 308 302 301 305 306 305 299 275 293 295 304 300 297 298 299 306 298 291 291 290 286 289 290 291 293 296 292 299 297 296 293 292 293 289 295 300 300 303 305 308 309 310
309 309 309 307 303 305 306 306 300 285 276 289 293 292 291 294 295 298 300 304 301 292 291 290 295 292 291 294 297 298 296 295 295 292 285 291 291 292 295 299 302 306 308 309 309
309 308 305 307 300 305 305 299 285 278 291 286 287 291 291 290 292 293 292 292 289 286 284 289 290 293 295 290 293 292 289 283 282 283 283 293 291 294 298 303 305 305 307 308 310
307 306 307 308 309 306 302 290 276 285 286 290 289 290 287 290 290 291 290 287 293 292 287 285 283 292 297 290 287 288 289 284 278 281 285 293 288 292 302 305 307 308 308 312 313
305 305 305 307 308 305 294 281 278 286 290 288 289 285 285 289 289 289 288 288 291 292 285 284 285 296 296 295 293 288 285 293 287 289 285 289 293 299 302 302 305 306 310 317 320
300 301 303 308 308 301 289 285 288 293 293 291 283 287 283 286 286 287 286 292 291 295 294 289 282 291 293 294 295 294 293 285 288 280 280 288 290 291 298 302 303 306 310 317 320
300 298 305 306 306 296 282 287 290 295 294 290 287 286 286 286 287 286 287 291 294 293 294 291 285 286 291 288 288 290 288 288 288 288 283 283 288 299 300 303 303 306 317 318 318
300 293 305 306 292 292 286 291 294 293 296 294 292 291 288 288 287 286 286 290 295 295 289 292 287 283 286 293 296 293 290 289 284 284 289 288 289 302 306 305 306 312 317 318 320
295 298 306 304 286 286 292 292 293 292 292 292 290 292 292 289 285 289 289 295 295 293 290 291 285 279 283 289 294 291 294 293 291 291 288 286 290 302 305 308 308 313 318 319 320
297 291 297 298 295 290 289 289 289 295 293 293 291 293 290 288 290 288 289 293 295 295 299 294 286 284 280 285 290 288 291 294 293 288 288 291 293 299 305 304 307 316 318 318 320
298 293 295 286 288 290 292 290 288 288 293 293 290 291 289 285 286 286 290 291 294 297 293 293 284 287 287 290 291 289 289 291 289 291 289 293 295 298 305 310 313 317 318 318 318
295 292 295 292 292 291 292 290 290 290 290 289 289 291 291 287 288 286 289 289 287 293 291 292 287 288 286 290 291 288 290 291 291 292 293 295 296 307 310 316 316 316 317 317 318
300 300 296 292 290 288 289 291 291 292 293 293 292 291 290 292 294 294 294 293 292 289 288 289 288 287 283 291 289 284 289 290 292 294 295 292 299 307 309 314 312 315 317 318 319

GFSSW_sfc_thetae_036.txt.gz
Theta_e
312 311 312 312 312 312 313 314 314 314 314 314 315 315 315 315 316 307 300 308 312 324 330 318 322 317 313 314 319 317 299 294 297 300 304 310 308 315 318 316 317 318 318 321 325
312 312 312 312 313 313 313 313 313 313 314 314 314 314 314 315 307 303 311 322 326 330 318 310 307 318 314 314 315 311 305 302 305 306 304 307 308 310 313 314 314 318 320 322 323
312 312 313 313 313 313 313 313 313 313 314 314 313 313 314 312 300 300 326 325 326 328 315 311 309 307 309 313 310 310 307 311 311 309 309 309 309 312 311 310 313 313 316 319 319
312 313 313 313 312 312 313 313 313 314 314 313 313 313 313 306 283 305 328 328 333 323 316 308 303 300 296 304 312 305 311 313 313 313 311 309 311 309 311 312 317 317 318 319 318
312 313 313 312 312 312 312 312 313 313 313 313 313 313 306 297 297 302 319 314 310 323 308 306 300 297 294 296 300 302 307 309 312 312 312 313 310 310 311 316 318 318 316 315 317
312 312 312 312 312 313 313 313 313 313 312 312 312 312 301 290 302 305 305 305 304 302 308 303 300 300 297 297 297 300 301 305 308 307 308 308 309 310 312 315 315 315 314 315 315
312 312 312 312 313 313 313 313 312 313 313 313 313 308 300 295 305 303 301 299 302 303 300 305 305 301 299 297 301 300 296 300 302 303 306 309 305 306 312 314 312 313 314 314 313
311 311 312 311 312 313 313 312 312 313 314 315 314 307 295 306 306 304 304 303 305 304 303 304 303 302 299 300 300 297 296 292 300 303 304 304 297 308 312 311 310 311 313 314 315
312 312 311 311 310 311 312 311 312 314 315 314 306 302 294 310 304 306 304 300 302 303 301 305 300 296 297 292 290 292 291 294 297 303 303 302 299 306 310 310 308 309 311 313 314
311 311 311 311 311 311 311 311 311 312 311 311 308 299 301 300 307 308 305 304 301 300 298 296 292 291 290 289 285 289 290 294 295 300 303 301 300 305 308 308 308 309 311 312 313
310 310 310 311 311 311 308 301 296 293 296 294 295 298 300 304 306 301 305 301 302 298 288 292 286 285 289 292 293 294 293 293 297 301 300 299 300 303 306 306 305 307 309 310 312
309 309 310 311 311 311 303 298 298 297 290 299 298 298 300 301 295 298 303 294 293 287 292 288 285 290 293 294 293 292 290 290 294 297 298 298 298 303 305 306 307 307 308 308 307
309 309 310 310 310 304 300 300 303 299 288 293 300 299 297 299 294 295 299 295 291 287 287 287 290 295 292 291 291 291 289 290 291 295 297 294 292 295 301 303 305 306 307 308 308
309 309 309 309 302 300 299 304 301 299 282 290 294 298 300 298 293 300 301 296 291 286 288 286 290 290 290 289 291 287 294 294 292 290 286 294 285 293 298 299 302 304 304 304 307
309 309 309 308 299 298 303 302 301 296 276 291 294 303 300 295 297 297 305 300 289 289 288 285 287 287 287 290 294 289 296 294 294 291 288 290 285 291 296 296 299 302 303 306 308
309 309 308 303 299 302 303 301 298 282 273 287 293 291 291 293 295 298 298 302 300 294 291 289 292 290 288 291 292 293 292 292 292 287 282 288 287 289 292 295 298 302 304 305 306
309 308 306 305 297 303 301 296 280 274 290 286 287 290 289 289 291 293 291 289 288 285 284 288 288 291 293 288 290 288 282 278 277 279 281 290 287 290 294 297 299 301 303 306 306
307 307 303 305 302 303 297 286 275 283 285 292 290 289 285 289 289 291 289 286 292 291 287 284 282 290 296 290 285 284 283 279 275 277 282 290 284 289 298 302 303 304 305 305 307
305 298 300 304 304 300 290 278 276 286 289 288 288 284 284 289 288 288 287 288 291 291 285 284 284 294 294 294 291 287 282 286 281 285 281 286 291 296 300 300 302 301 303 310 315
296 295 298 305 303 297 285 283 286 292 292 291 283 286 282 285 285 286 286 291 290 294 294 287 281 290 292 293 292 289 292 281 280 277 277 283 286 288 294 297 299 299 302 313 316
295 294 302 302 302 291 278 284 290 294 294 290 287 285 286 284 286 285 286 291 293 292 293 288 284 285 290 287 285 285 285 285 283 282 280 278 284 294 296 298 299 301 310 316 317
293 289 301 303 288 285 281 289 294 292 295 293 292 289 287 288 286 286 286 289 295 294 288 289 285 281 284 290 293 290 287 286 279 279 283 285 285 298 298 301 302 303 315 317 319
292 291 301 299 286 281 287 291 293 291 291 291 290 291 291 287 283 288 289 295 295 293 290 291 282 277 278 284 292 289 292 292 289 285 282 281 285 298 298 300 304 312 316 317 318
292 286 291 291 289 285 285 288 288 295 293 292 290 291 288 287 288 286 288 293 295 295 298 294 285 281 275 281 288 286 289 291 289 283 284 285 288 295 297 298 303 314 316 317 319
291 286 289 281 285 287 288 290 288 288 292 292 289 289 288 285 285 284 289 290 293 295 294 289 282 285 285 287 288 288 288 289 288 289 285 289 289 294 297 300 306 314 316 317 318
288 288 291 288 289 286 288 288 289 290 290 289 287 290 290 287 288 285 287 287 286 290 289 289 283 287 284 288 289 287 290 291 290 290 290 290 290 299 301 310 310 314 316 316 317
293 296 293 290 286 286 286 289 290 292 293 293 291 289 288 291 294 293 294 293 291 287 287 289 287 285 281 288 288 283 289 290 291 293 292 287 293 300 302 313 312 311 316 317 318

GFSSW_sfc_thetae_039.txt.gz
Theta_e
311 312 312 312 313 313 313 314 314 314 314 314 314 314 314 314 314 306 298 305 310 321 325 314 322 318 312 310 316 310 297 294 297 299 302 307 305 312 314 313 315 316 316 319 321
311 311 312 313 313 313 313 313 313 314 314 314 314 314 314 314 305 301 309 316 323 327 313 306 304 314 303 305 312 308 299 299 303 305 303 306 305 308 309 310 310 314 318 320 322
311 312 312 313 313 313 313 313 313 313 313 314 313 313 313 311 293 293 324 323 324 325 317 311 307 305 307 311 308 309 304 308 307 308 311 310 307 309 308 306 310 312 315 317 318
312 312 312 312 312 313 313 313 313 313 313 313 313 313 313 304 281 298 321 322 320 313 315 308 304 298 295 303 311 303 310 313 313 315 313 310 313 309 309 309 314 316 317 316 316
311 311 312 312 312 312 312 312 313 313 313 312 312 312 304 295 294 301 314 309 305 314 313 305 300 299 294 295 301 302 306 308 313 314 313 313 310 310 310 314 317 317 317 315 314
310 311 311 312 312 312 312 312 312 312 312 312 312 311 300 290 302 303 303 302 301 299 301 306 300 300 295 295 298 298 299 303 305 305 307 307 308 310 312 315 314 314 313 312 312
312 312 311 311 312 312 312 312 312 312 312 313 313 308 299 296 305 304 304 300 300 300 298 301 305 300 298 294 298 297 294 297 299 299 300 306 302 304 310 312 311 311 311 311 312
311 311 310 310 311 312 313 313 313 313 314 314 313 306 295 305 305 303 304 302 303 302 301 302 301 298 297 298 298 294 293 291 298 300 301 303 296 305 310 311 310 310 311 311 311
310 311 309 310 310 311 312 312 313 315 314 314 305 300 294 310 304 307 304 300 301 302 301 304 297 294 295 292 288 291 290 291 295 301 301 301 297 305 308 308 307 308 308 310 311
309 310 309 309 310 311 311 312 312 311 312 311 308 296 297 296 302 305 305 303 299 298 296 294 291 289 287 288 284 287 288 292 292 298 300 299 298 303 306 306 305 306 307 308 309
309 309 310 310 310 310 307 300 295 293 294 292 294 295 297 301 304 301 303 300 299 295 288 290 285 284 289 291 292 291 289 290 294 299 299 298 298 300 303 304 304 306 307 308 309
309 309 309 311 310 310 302 296 296 296 288 297 296 297 300 301 295 298 302 294 291 286 289 286 284 289 291 291 291 289 287 287 292 296 294 294 295 298 301 303 303 304 306 306 307
308 308 309 310 309 302 298 300 301 297 287 292 297 297 299 298 294 294 298 294 289 286 285 284 287 292 290 289 288 288 287 288 289 293 294 292 290 293 297 299 302 305 305 305 306
309 309 309 309 301 298 297 303 301 297 281 289 293 297 298 297 293 301 300 295 289 285 286 284 289 288 288 287 288 283 291 292 291 288 284 291 283 290 294 296 298 299 302 302 304
308 309 309 308 298 297 301 301 300 294 271 290 293 301 297 292 295 297 302 296 289 288 286 283 285 285 285 287 290 286 291 291 290 288 285 287 283 289 293 292 296 299 301 301 304
309 309 308 302 297 301 303 300 296 279 270 287 293 291 290 292 293 297 297 301 299 292 289 286 291 288 287 290 289 291 288 288 288 285 279 286 285 286 289 293 296 298 299 302 302
309 308 306 304 296 300 299 293 279 273 288 285 287 290 289 288 290 292 291 290 288 283 284 289 287 290 291 285 288 286 280 275 276 276 279 288 285 288 292 295 296 296 298 300 302
307 306 303 304 301 300 294 284 275 281 285 291 290 289 284 288 288 290 289 286 291 290 286 283 280 287 291 287 284 282 281 276 274 276 279 288 283 288 296 299 300 300 299 300 300
305 296 297 301 303 298 288 278 275 284 289 288 288 284 283 287 287 287 286 287 291 292 285 283 283 293 293 294 290 285 280 284 279 281 278 283 288 294 297 297 299 298 298 298 300
294 294 297 302 301 294 284 283 285 291 292 290 283 286 281 284 284 284 285 291 290 294 294 288 281 290 292 292 291 287 290 279 277 274 274 280 283 286 291 294 297 296 297 298 309
294 293 300 301 300 289 278 283 289 294 293 289 286 285 285 284 284 283 285 290 293 291 293 288 283 285 289 285 282 284 283 284 281 280 276 276 281 291 292 295 295 297 299 299 312
290 287 300 299 286 282 279 288 293 292 294 292 291 288 286 286 284 285 285 289 295 294 287 289 284 280 284 289 291 287 285 285 278 279 280 280 282 295 294 294 295 299 302 308 315
290 291 300 297 278 279 285 289 292 291 291 291 289 290 290 287 283 286 289 294 295 292 289 289 282 277 278 283 290 286 288 287 287 284 282 278 281 294 294 296 298 298 310 314 316
292 285 288 288 287 282 283 286 287 294 292 292 289 291 287 287 289 286 287 291 294 294 297 294 283 280 274 280 285 284 287 289 286 281 283 284 286 291 293 296 299 300 311 312 317
289 283 287 280 284 286 285 288 286 287 293 293 288 288 287 284 285 283 287 289 292 294 291 289 281 283 284 286 287 286 285 286 286 287 283 287 287 292 295 297 299 306 309 314 317
285 285 288 287 289 288 286 284 286 289 289 288 287 289 288 285 287 285 287 287 285 289 291 290 283 285 283 287 287 285 287 288 288 289 288 289 288 295 298 301 303 311 313 315 317
290 291 289 286 286 286 286 288 288 290 291 293 292 290 287 289 292 292 292 291 290 286 288 289 286 284 279 285 286 283 286 288 289 291 290 285 290 298 301 302 306 311 313 316 318

GFSSW_sfc_thetae_045.txt.gz
Theta_e
312 312 311 312 312 312 313 313 313 314 314 314 314 314 314 313 314 306 298 303 310 321 323 308 309 314 318 316 319 313 301 298 300 300 302 309 308 314 316 314 316 319 320 322 330
311 312 312 312 312 312 312 312 313 313 313 314 314 313 313 313 306 300 306 313 316 320 310 303 301 312 312 311 316 311 303 301 305 306 305 308 310 311 312 312 313 316 321 322 324
311 312 312 312 312 312 312 312 312 313 313 313 313 312 312 311 295 294 321 316 317 317 311 310 309 309 307 307 311 311 305 308 307 307 309 308 309 312 310 309 314 313 316 320 321
311 312 312 312 312 312 312 311 311 313 313 313 312 312 312 305 287 304 317 314 314 308 309 311 306 301 303 303 308 304 309 311 312 311 310 307 311 310 311 312 316 318 319 319 320
311 311 311 311 311 312 312 312 313 313 313 313 312 313 306 297 296 304 313 309 308 305 302 308 302 300 298 302 306 305 306 309 312 313 313 315 314 314 315 319 321 322 322 320 321
310 311 311 311 311 312 312 313 313 312 312 313 313 312 301 291 304 307 307 308 305 303 301 304 306 303 300 300 301 306 307 307 309 312 313 311 311 314 315 319 318 317 318 319 319
310 310 310 311 311 312 313 313 313 313 315 313 312 309 299 297 307 309 308 307 305 304 300 301 302 304 301 297 302 302 300 302 306 309 309 310 307 308 314 315 314 314 316 317 319
310 310 310 310 311 312 313 313 313 315 316 314 313 307 297 307 310 308 308 306 306 306 303 303 301 299 302 303 300 297 298 294 302 302 305 306 300 309 313 312 311 313 315 316 319
310 310 309 310 311 312 312 313 314 314 315 315 308 303 297 309 304 308 309 303 304 304 303 303 301 297 299 295 293 296 291 294 297 303 302 302 300 307 311 311 312 314 314 315 316
309 309 308 309 311 311 311 312 313 315 313 311 309 297 300 298 303 304 307 306 301 300 299 298 297 293 294 293 286 290 291 294 294 300 301 300 300 305 309 308 310 311 312 313 314
309 308 308 309 310 310 308 305 300 299 300 295 296 295 297 302 305 302 304 301 300 298 292 294 290 287 291 294 295 294 293 293 296 301 300 299 300 303 306 307 307 308 310 312 314
308 308 308 309 309 310 306 300 300 301 294 299 298 298 300 301 296 300 303 295 294 290 293 290 286 291 293 293 292 292 291 291 295 298 298 299 298 302 303 304 306 308 309 311 312
307 308 308 308 309 306 303 302 306 301 293 295 298 297 299 300 295 296 299 296 292 290 290 288 290 293 292 291 290 291 290 291 291 295 298 296 294 298 302 304 305 307 308 309 310
307 307 308 307 303 303 301 306 306 302 288 289 293 297 299 299 293 301 301 297 293 289 290 290 294 289 289 288 291 287 293 293 292 291 288 296 287 296 300 301 303 304 306 307 309
307 307 307 306 302 301 303 306 303 299 276 290 293 303 300 294 295 296 303 297 291 291 291 289 290 289 287 289 291 289 293 292 291 290 289 291 287 293 299 297 300 303 305 307 308
308 308 307 304 303 305 305 303 301 286 276 286 293 292 292 294 294 296 296 300 300 294 294 293 297 293 290 292 292 293 291 292 292 289 283 288 288 290 294 297 300 303 304 306 308
307 307 305 304 301 304 304 299 285 280 289 286 287 291 290 289 290 291 290 290 289 285 286 290 291 294 294 288 291 290 288 281 280 280 280 290 287 290 297 299 300 301 304 307 308
307 303 306 306 307 306 300 291 279 282 285 291 290 290 287 289 289 289 289 287 293 290 286 284 282 291 293 291 287 288 287 283 276 278 282 288 284 290 299 301 303 304 306 308 310
304 304 304 306 306 303 296 285 283 285 289 288 289 285 285 288 288 288 288 287 291 292 284 283 283 291 294 294 292 287 284 290 284 285 283 286 290 295 298 299 301 303 305 307 310
300 301 303 305 305 302 293 286 287 290 292 291 284 287 283 286 286 287 286 291 290 293 294 289 282 290 290 294 293 290 292 283 284 278 277 283 286 289 294 296 300 301 303 306 309
300 300 304 304 304 297 288 287 289 294 294 290 287 286 287 286 287 286 286 290 293 292 294 291 287 285 290 287 287 288 287 287 288 285 281 281 286 297 297 298 299 302 304 306 308
297 294 304 303 295 289 288 288 292 292 295 292 292 290 288 288 286 286 285 289 295 294 288 292 288 283 285 291 293 291 288 289 284 282 285 284 285 298 299 300 301 302 303 307 310
293 294 303 300 288 287 289 289 291 291 291 291 289 291 292 288 284 288 288 293 294 293 290 292 286 280 282 288 291 288 289 290 289 289 285 282 285 298 299 300 301 301 303 306 309
295 290 294 294 292 288 285 286 287 292 292 293 291 292 289 288 290 287 288 292 294 294 297 295 287 284 279 283 287 285 287 289 289 284 285 286 288 293 296 297 300 302 304 305 307
291 289 290 287 287 287 288 287 285 286 292 292 290 290 288 284 285 285 289 290 293 295 294 292 284 287 287 288 288 287 287 288 286 288 284 287 288 292 296 298 300 302 303 303 306
290 289 292 288 288 288 288 287 287 288 288 287 287 289 290 286 287 284 287 288 288 292 290 293 285 287 284 287 287 285 287 288 288 288 288 289 288 296 298 299 299 301 303 304 308
294 293 291 288 287 286 287 287 287 288 290 292 290 289 288 290 293 293 294 293 291 289 288 288 286 284 280 286 286 282 287 288 289 291 290 286 291 296 295 297 299 301 305 308 313

GFSSW_sfc_thetae_048.txt.gz
Theta_e
312 312 313 313 313 313 313 312 312 313 314 314 314 314 314 314 314 310 304 308 310 321 321 310 308 317 320 320 319 318 306 303 305 303 305 309 310 315 318 318 321 323 324 327 334
312 312 313 313 313 313 313 313 313 313 313 314 314 314 314 314 310 304 312 315 317 319 311 306 305 310 313 313 317 314 307 307 310 310 306 309 311 313 314 315 319 320 325 325 330
312 312 312 313 313 312 313 313 313 313 314 314 314 314 314 314 303 304 320 315 317 317 312 310 309 306 308 314 312 313 308 312 312 312 310 308 310 314 313 313 320 319 322 323 325
312 312 312 312 312 312 313 313 314 314 315 314 314 314 314 309 292 306 316 315 316 313 310 310 307 303 305 306 312 308 313 313 314 315 311 308 311 312 313 314 320 320 322 324 325
311 311 312 312 312 312 313 313 314 314 313 314 314 313 311 301 300 308 313 313 312 309 304 305 306 304 301 305 308 308 310 313 315 315 315 315 311 313 314 318 320 321 322 324 325
311 310 311 311 312 312 313 314 314 314 313 314 314 313 306 297 308 311 312 312 311 308 304 303 304 307 303 303 304 308 309 310 312 312 314 311 313 315 317 322 321 322 323 324 323
311 310 310 311 311 312 313 314 314 314 315 315 313 312 305 301 310 313 313 311 311 309 305 306 305 304 306 302 306 305 302 306 310 312 310 314 309 310 316 318 319 320 321 322 323
311 311 310 310 311 312 313 314 313 315 317 315 314 311 302 310 313 311 312 310 311 311 308 308 307 302 302 307 304 300 301 297 305 308 310 310 303 312 317 317 316 318 320 320 322
310 310 309 310 311 312 312 312 313 315 316 315 312 308 299 310 305 309 310 306 308 308 308 307 304 300 299 297 297 299 294 297 300 307 307 305 304 312 315 315 316 317 318 319 321
310 310 309 309 310 311 311 313 315 316 314 313 312 304 304 300 305 307 310 308 305 304 303 302 300 297 296 294 288 293 295 297 297 304 305 303 303 309 313 312 314 316 317 318 320
309 309 309 309 310 310 312 311 306 304 305 300 300 299 301 306 308 304 306 305 304 301 296 300 294 291 294 296 296 296 296 296 300 303 302 303 303 306 310 311 312 314 315 316 318
309 309 309 309 309 310 311 304 304 305 298 302 302 301 304 305 299 302 305 299 298 294 297 295 291 296 296 295 294 294 294 295 299 301 302 301 301 306 308 309 312 312 314 315 317
309 308 308 308 309 310 308 306 311 309 298 297 301 300 301 303 298 299 302 300 296 293 294 292 294 297 294 293 291 292 291 293 294 299 302 300 299 302 307 310 311 312 313 314 315
309 308 308 308 306 311 307 310 312 310 293 292 296 300 301 302 296 303 303 300 296 292 294 293 296 294 293 292 293 289 294 294 294 295 291 300 290 300 304 305 307 310 311 313 314
309 308 309 307 309 308 309 313 312 307 283 292 295 304 302 297 297 297 304 300 294 294 294 291 293 292 292 292 294 291 295 294 295 294 294 294 292 297 302 301 305 309 310 312 314
309 308 307 307 311 311 312 312 307 291 278 289 295 295 295 297 296 298 299 301 301 296 296 295 299 296 295 296 296 296 293 293 294 293 287 293 293 294 298 301 305 308 310 311 312
308 307 308 311 307 312 313 306 291 285 292 289 291 295 294 292 293 294 293 293 291 288 288 292 293 297 298 293 296 293 290 283 282 283 284 294 291 294 301 303 305 305 307 310 312
307 304 307 313 315 313 309 297 284 287 289 294 294 294 290 292 292 293 292 290 294 293 289 286 283 292 294 294 290 290 289 284 279 281 284 292 288 294 302 305 307 308 309 310 313
305 314 314 313 314 312 302 290 289 290 292 291 293 289 289 291 292 292 292 290 292 294 287 286 285 294 294 295 296 291 286 292 286 288 286 290 293 299 302 302 305 306 307 309 312
307 311 309 312 314 308 298 288 291 294 294 294 288 290 287 290 289 290 290 292 292 294 297 291 285 292 293 294 296 294 295 285 286 279 280 288 290 291 298 299 302 304 306 310 313
308 304 308 311 311 303 293 291 292 296 296 292 290 289 290 288 290 289 288 293 294 294 296 293 290 289 292 287 288 289 288 288 289 286 282 284 289 300 299 302 304 305 307 309 311
305 297 308 309 298 299 292 291 293 294 297 294 295 293 290 291 289 289 288 291 296 296 291 294 291 286 288 292 295 293 290 291 284 284 287 287 290 303 305 305 305 304 307 309 311
298 299 309 306 293 291 293 292 293 293 293 292 291 294 294 291 286 290 291 295 296 294 292 295 289 283 286 290 293 290 291 293 293 291 287 285 289 303 303 302 304 305 307 308 309
297 294 301 301 299 291 289 291 290 295 294 295 293 294 293 291 293 288 290 293 296 295 297 296 290 286 282 286 290 287 290 291 291 287 287 288 292 297 300 301 303 304 307 307 308
298 295 296 293 297 293 293 291 289 289 294 295 292 292 289 287 289 288 291 292 295 297 297 294 287 290 290 291 291 290 289 291 290 291 287 290 291 296 299 301 302 305 305 305 307
296 294 297 294 295 293 291 290 289 290 291 290 289 290 290 287 288 286 289 291 289 295 294 295 287 289 287 291 290 288 290 291 291 291 291 291 291 299 301 302 301 302 304 304 307
301 295 292 292 292 291 293 290 290 292 293 294 293 290 290 293 297 297 297 296 294 291 290 291 289 286 283 288 288 285 289 291 292 293 292 289 294 299 299 300 301 303 304 305 309

GFSSW_sfc_thetae_051.txt.gz
Theta_e
313 313 314 314 314 314 314 314 314 314 315 315 315 316 316 315 315 314 308 310 313 323 321 310 312 312 318 316 319 320 309 306 307 307 308 312 311 315 318 316 319 326 328 330 334
313 313 313 313 313 313 314 314 314 315 315 316 316 316 315 315 313 309 315 316 317 320 312 308 307 310 311 314 316 314 309 309 313 313 311 312 312 313 314 315 317 323 326 328 334
312 312 313 313 313 313 314 314 315 315 316 315 315 315 315 315 310 309 319 315 317 318 312 312 310 308 306 312 313 314 310 314 314 316 315 312 312 315 313 313 318 320 325 327 328
312 312 312 313 313 313 313 314 315 316 316 315 315 315 315 315 297 310 324 318 319 317 310 310 308 305 304 304 311 308 313 314 314 316 317 313 313 312 314 315 320 324 327 327 326
312 312 312 312 312 313 313 314 315 316 315 315 316 315 315 307 304 313 315 319 316 311 307 305 307 306 303 305 308 307 310 313 315 315 316 317 314 314 314 318 320 321 325 325 326
311 311 311 312 312 312 313 314 315 314 315 316 317 315 313 301 311 313 313 313 312 311 309 307 304 307 306 306 305 308 309 310 313 314 315 314 313 314 318 320 319 319 320 323 324
311 311 311 311 311 312 314 314 314 314 315 317 316 315 310 303 312 314 314 311 312 310 307 310 308 304 306 304 309 307 303 306 308 311 311 315 309 310 317 319 319 320 321 323 326
311 311 310 311 311 312 312 313 313 314 317 318 315 316 305 311 314 311 312 310 312 312 310 311 310 306 303 304 303 301 303 298 305 308 310 310 304 312 316 316 317 318 320 322 325
311 311 310 310 311 311 312 312 314 316 316 316 315 311 303 311 307 309 310 307 308 310 310 310 308 303 303 297 295 297 295 298 301 307 307 306 305 312 316 316 316 318 319 320 322
311 311 310 310 311 311 311 311 316 316 317 317 313 306 307 301 306 308 311 308 305 306 305 304 304 299 299 296 289 292 294 297 298 304 306 304 304 309 313 313 315 317 319 320 322
311 311 310 310 310 311 311 315 310 309 309 302 302 301 302 307 309 306 307 305 306 303 298 302 297 295 297 299 298 297 295 294 299 304 303 302 304 306 310 311 312 315 317 319 321
310 309 310 309 310 310 312 307 306 308 299 306 304 303 305 306 300 304 307 300 300 296 299 297 294 298 299 298 296 295 293 294 298 301 302 303 302 306 309 310 312 313 315 318 319
310 309 309 310 310 311 310 308 313 312 301 301 303 302 302 304 300 301 304 301 298 295 295 293 295 299 297 295 294 294 292 293 294 298 301 301 299 302 307 310 312 313 315 317 318
310 310 310 309 307 313 310 312 314 312 296 296 298 301 303 303 299 304 305 301 298 294 295 295 298 295 295 293 295 290 296 295 294 292 289 300 291 300 304 306 309 311 313 315 316
310 310 309 306 313 310 311 315 314 310 287 296 298 306 303 299 300 300 305 302 295 295 295 293 294 293 293 294 296 293 297 295 294 292 292 293 293 297 304 303 306 310 312 314 316
310 309 308 309 314 313 315 315 310 295 285 292 297 297 297 300 299 301 300 304 302 296 297 296 300 298 295 297 297 299 295 295 294 292 285 292 292 294 299 303 306 310 312 314 315
310 308 308 314 311 315 315 309 294 289 296 292 293 297 296 296 296 296 296 295 293 289 289 293 294 296 299 294 298 296 293 284 282 283 283 293 292 295 302 305 307 308 311 314 314
308 306 311 315 317 315 312 301 289 292 292 297 296 296 294 295 295 295 295 293 296 294 291 287 285 293 297 294 293 293 290 285 277 280 285 292 286 294 304 308 308 309 310 312 313
306 315 315 317 317 314 304 293 293 293 295 294 295 293 292 294 295 294 294 293 294 296 289 287 287 296 297 298 296 293 290 295 287 288 284 287 293 298 304 305 306 307 309 311 313
309 311 312 315 318 310 300 293 294 296 297 296 290 293 290 292 292 293 292 295 293 296 298 293 286 294 295 299 299 295 298 287 288 279 278 286 288 292 297 301 305 307 308 311 314
309 304 311 314 313 304 295 294 295 298 298 294 293 292 292 291 293 292 291 294 296 296 297 295 291 290 294 293 292 291 291 290 291 288 281 280 286 298 300 302 304 307 310 310 312
307 300 311 309 300 301 295 294 294 296 299 297 297 295 292 293 291 292 290 293 298 298 292 296 292 287 289 295 297 296 294 292 285 284 288 287 286 300 301 306 307 308 309 310 312
302 302 311 309 295 296 297 295 296 296 297 295 294 296 296 292 289 293 294 297 298 296 293 296 291 284 287 290 294 291 294 294 293 292 287 283 287 301 306 307 308 307 307 309 310
302 297 303 306 303 295 295 294 293 297 296 297 296 297 295 292 295 292 292 296 298 297 299 297 292 286 284 286 288 287 292 293 291 284 288 287 290 294 297 303 305 305 307 309 309
304 300 300 295 296 297 298 297 292 292 297 298 295 294 293 289 291 291 293 295 297 299 297 295 289 291 292 291 291 291 291 291 291 292 288 290 290 294 297 299 304 305 306 306 308
298 297 299 296 298 296 295 294 292 293 294 293 294 295 295 289 290 289 292 293 292 298 296 298 288 291 288 292 292 289 292 292 292 292 291 292 291 298 301 303 303 304 305 305 306
300 301 297 294 296 295 295 295 294 295 295 296 295 295 294 295 297 297 299 299 297 294 294 291 291 289 284 289 289 285 290 292 293 294 293 289 295 300 299 301 302 304 305 306 307

GFSSW_sfc_thetae_054.txt.gz
Theta_e
313 314 314 314 314 314 314 315 315 316 316 317 317 317 317 317 316 313 309 310 312 324 320 307 308 311 312 313 315 316 307 305 306 306 308 313 311 315 317 313 316 319 323 330 335
313 313 313 314 314 314 314 315 316 316 316 317 317 317 316 317 312 310 315 317 320 323 310 307 304 307 306 308 311 308 305 306 312 312 311 313 313 313 312 312 313 317 325 329 333
313 313 313 313 313 313 314 314 315 316 317 317 317 317 316 316 310 308 320 318 321 320 311 310 310 307 303 306 308 308 305 311 312 314 315 313 313 315 312 310 313 316 320 327 328
312 312 313 313 313 313 313 314 315 316 317 317 317 317 317 313 298 312 325 323 325 317 312 308 306 303 302 301 306 303 309 311 313 315 314 313 317 315 314 313 317 318 323 326 327
312 312 312 312 312 313 313 314 315 315 316 316 317 318 315 310 305 315 327 322 317 315 309 306 303 304 301 303 304 302 305 309 311 313 314 315 313 314 315 317 318 319 320 324 328
311 311 311 312 312 312 313 314 314 314 315 316 317 318 312 305 311 313 313 313 312 310 309 308 305 305 301 302 303 305 305 306 308 309 312 311 312 314 316 320 319 320 319 321 326
312 311 311 311 311 312 313 313 314 314 315 316 318 315 311 306 312 313 313 311 312 311 307 309 309 305 304 300 305 304 301 304 305 306 307 310 307 309 316 318 318 319 320 320 322
313 312 311 311 311 312 313 313 313 314 317 317 319 314 308 311 313 311 311 309 312 311 309 310 310 305 302 304 301 298 300 296 303 305 307 306 300 309 314 315 316 317 319 321 322
312 312 311 311 311 312 312 312 313 316 318 317 314 314 304 312 307 309 310 306 307 308 309 310 307 302 302 297 294 296 290 293 297 305 304 304 301 309 313 313 314 317 318 319 321
312 312 310 310 311 311 311 311 316 316 317 318 315 305 309 303 307 307 310 308 305 305 305 305 303 299 299 296 288 291 292 294 294 299 302 302 302 307 310 310 312 315 318 319 320
312 311 311 311 311 311 311 314 309 309 312 305 303 303 304 307 309 306 308 305 305 303 297 301 296 293 297 299 299 296 295 294 297 300 298 299 302 305 309 310 309 312 316 318 320
311 311 311 311 311 311 310 309 306 308 300 306 306 305 306 306 300 305 308 300 300 295 298 296 293 298 299 299 297 296 293 292 296 299 298 298 297 303 307 309 311 311 313 315 318
311 311 311 311 311 309 312 308 313 312 300 303 304 302 303 305 300 301 304 301 297 294 295 292 295 298 296 295 294 294 292 293 292 296 297 296 294 299 304 308 310 312 315 316 316
310 310 310 310 307 311 310 314 314 313 295 297 299 302 303 303 299 305 306 301 297 293 295 294 297 295 294 293 294 290 296 295 293 291 287 296 287 297 301 304 307 309 312 315 316
310 310 310 309 309 310 310 315 314 310 286 298 299 307 304 300 301 302 306 301 295 295 295 292 294 294 293 293 296 292 297 294 294 292 291 291 288 292 299 300 305 308 311 314 316
310 310 310 313 312 313 314 315 312 295 285 294 299 297 298 300 300 301 301 304 302 296 297 295 300 298 296 298 298 298 295 294 294 292 284 289 288 290 294 298 303 309 311 313 315
310 309 307 313 309 314 314 309 294 289 297 294 295 298 296 296 297 297 296 295 293 289 289 293 293 297 299 294 297 295 291 283 281 283 283 291 288 291 298 301 303 306 310 313 316
307 307 312 313 316 315 310 301 289 295 294 298 297 296 294 296 296 296 295 292 297 294 290 286 284 292 297 293 290 291 291 284 276 279 283 290 285 290 301 303 305 308 311 313 313
306 315 314 317 316 313 303 293 293 294 296 294 295 293 293 295 295 295 294 293 295 296 288 287 287 296 296 296 296 292 288 294 287 288 284 287 290 296 300 301 304 306 309 310 315
307 311 312 315 316 308 299 294 295 298 297 296 290 294 290 292 292 292 292 296 294 297 297 292 286 293 295 297 297 295 297 288 289 279 278 284 285 287 295 298 302 304 307 311 314
309 306 313 314 312 304 296 295 297 299 297 295 293 292 292 291 293 291 292 295 298 296 298 295 291 289 293 291 290 291 291 291 291 287 280 280 284 297 297 301 300 306 308 311 313
308 300 313 312 300 302 296 296 296 296 300 298 298 295 293 293 291 291 291 294 299 298 292 295 291 286 288 295 297 295 291 291 284 284 288 286 286 299 300 302 301 303 308 311 312
303 304 313 310 297 296 298 298 299 296 297 296 295 297 297 293 290 293 294 299 299 297 294 296 289 283 285 290 292 289 292 293 293 292 286 283 286 298 299 299 300 300 307 310 310
304 298 304 304 305 298 296 296 295 299 297 298 296 297 295 293 295 292 293 296 299 297 301 299 291 286 282 286 291 287 290 293 292 286 287 286 288 293 295 295 298 300 303 308 308
304 300 302 295 296 297 298 297 295 294 298 298 295 296 294 290 291 291 294 295 297 300 298 296 289 290 291 292 292 290 290 291 290 291 286 288 289 293 296 297 299 302 304 306 306
298 297 299 296 298 297 298 296 296 295 296 294 293 295 295 291 292 291 294 294 293 297 296 298 289 291 288 292 292 289 291 292 292 291 290 290 290 298 300 300 300 301 303 304 305
303 304 297 294 297 295 296 295 295 297 296 297 296 295 293 295 299 299 299 299 298 295 295 294 291 288 284 290 290 285 290 291 293 295 294 289 294 299 299 300 301 302 304 305 306

GFSSW_sfc_thetae_057.txt.gz
Theta_e
314 314 314 314 314 314 314 315 315 316 317 317 318 318 317 317 317 310 303 311 311 323 323 307 305 305 307 306 310 311 299 300 303 304 306 310 309 314 314 310 311 314 324 328 332
313 313 314 314 313 314 314 314 315 316 316 317 318 318 317 317 309 306 317 322 322 324 307 304 302 302 299 301 303 303 297 299 308 309 308 310 310 311 310 309 309 311 322 329 331
312 313 313 313 314 313 314 314 315 316 316 317 317 317 317 316 305 303 324 326 325 320 310 307 306 303 298 300 300 302 298 303 306 310 311 310 311 314 311 306 308 309 313 324 327
312 312 312 312 313 313 313 314 315 316 316 316 317 317 319 311 295 308 325 329 328 318 311 306 303 296 295 295 299 296 302 305 306 309 309 308 312 311 312 312 314 315 315 315 318
312 312 312 312 312 312 313 313 314 315 315 315 316 317 312 305 305 312 329 330 321 314 309 305 298 296 294 297 299 297 300 302 306 307 308 310 308 309 311 315 318 318 316 315 317
313 312 312 312 312 312 313 313 313 314 314 315 316 318 308 302 307 313 320 313 312 307 305 303 299 301 296 295 294 298 299 301 303 303 305 305 306 308 311 315 316 317 316 316 316
313 313 312 312 312 312 312 313 313 313 314 317 317 315 306 304 307 308 307 302 307 309 305 305 305 300 299 295 298 298 294 297 300 301 300 303 301 303 309 313 314 315 316 317 317
312 313 312 312 311 312 312 313 313 313 315 318 318 311 303 309 306 305 305 305 308 306 305 305 306 300 296 298 296 293 292 287 295 300 302 300 293 303 308 309 310 314 315 316 317
311 311 312 311 312 312 312 312 313 314 316 318 310 306 302 312 306 306 304 304 305 305 305 308 302 297 297 291 287 289 284 287 291 297 298 298 295 302 306 306 307 309 311 316 316
312 312 310 310 312 312 312 312 313 315 315 315 312 303 305 303 306 306 307 307 303 302 302 301 296 292 291 288 281 285 286 289 289 293 294 293 294 299 304 305 305 308 310 314 315
312 312 311 310 312 311 308 305 302 303 305 304 305 305 303 306 308 304 308 305 303 299 292 296 289 285 290 292 294 293 291 290 293 296 293 292 293 296 300 300 302 305 306 308 314
312 312 312 311 311 311 305 301 302 301 295 304 304 303 306 306 299 303 307 299 296 291 294 290 286 293 295 295 293 291 289 289 293 296 294 292 292 295 297 298 300 301 305 306 309
311 311 311 311 311 306 304 306 308 307 294 300 304 302 301 302 299 300 304 299 294 291 290 287 291 296 294 292 290 290 288 289 289 293 294 292 289 292 297 299 301 303 304 307 308
311 311 311 310 306 307 305 308 308 307 288 296 297 300 301 300 297 305 305 299 294 290 291 290 294 294 292 292 292 287 293 293 291 288 282 291 281 289 293 295 298 300 302 304 305
311 311 310 309 303 303 305 308 308 304 281 297 297 305 301 297 299 301 304 299 292 292 291 289 291 291 290 292 295 290 295 292 291 288 286 286 283 287 292 292 294 297 300 303 305
311 311 309 310 305 307 309 307 305 290 282 293 298 296 295 298 299 301 300 301 299 293 293 292 297 295 293 296 296 297 291 290 289 285 280 285 284 285 288 292 295 298 300 302 305
311 310 307 309 305 311 308 303 288 284 297 292 293 296 294 294 296 297 295 291 288 286 285 290 290 294 298 292 294 290 285 276 276 276 277 287 285 287 293 295 296 297 299 302 303
309 307 310 310 310 310 304 294 284 294 292 296 294 294 291 295 295 295 293 289 295 292 286 283 282 292 296 292 288 288 285 279 273 274 278 287 282 286 295 298 299 300 301 302 302
307 309 309 312 313 309 297 286 288 292 294 292 293 290 291 293 292 292 290 290 293 293 285 284 284 295 295 295 292 287 283 289 283 284 279 283 287 293 295 297 300 300 301 301 304
302 306 307 311 311 303 293 291 294 296 295 293 287 292 287 289 289 289 289 294 294 296 294 290 283 292 293 295 293 290 292 282 283 277 275 281 283 285 292 294 296 296 298 301 302
302 302 308 309 308 298 288 293 296 298 297 293 291 290 290 289 290 288 289 293 296 294 294 290 286 287 291 288 287 287 287 286 288 283 277 275 280 293 293 295 295 296 299 302 304
302 295 308 307 293 297 293 295 298 297 299 296 296 293 290 292 289 289 289 293 298 297 290 292 287 282 285 292 294 291 289 288 282 279 285 283 281 295 294 297 297 297 300 304 306
299 300 309 306 290 290 295 296 297 296 296 294 293 294 294 290 287 292 292 298 298 295 293 291 284 279 282 286 291 287 290 289 288 285 282 280 282 297 296 296 298 297 300 303 306
300 295 300 301 299 292 291 292 293 300 297 297 295 295 293 291 292 290 291 295 297 296 301 297 287 283 279 283 287 285 288 290 288 282 283 285 286 290 294 296 297 299 301 302 305
300 296 296 290 292 292 293 294 293 293 297 296 293 293 290 287 289 287 291 293 296 300 295 294 285 289 289 291 291 289 289 289 287 288 284 287 288 291 294 296 298 301 301 301 301
294 292 294 291 295 293 294 293 292 293 293 292 290 293 292 287 289 288 291 290 289 293 290 293 287 289 287 290 290 288 290 291 290 291 290 290 290 296 298 298 298 300 300 299 301
300 300 295 292 292 290 289 290 291 294 295 296 293 291 290 292 295 295 295 295 293 291 291 291 287 283 281 288 288 282 289 291 291 292 291 287 291 296 297 298 298 299 301 302 309

GFSSW_sfc_thetae_060.txt.gz
Theta_e
313 313 314 314 314 314 314 314 315 315 316 317 318 318 317 318 316 308 301 310 313 323 323 309 305 303 303 303 308 308 294 297 302 304 306 311 308 313 315 311 310 311 323 326 329
313 313 313 313 313 313 314 314 315 315 316 317 317 317 318 318 308 304 313 325 324 323 305 303 301 302 297 300 301 301 293 297 306 309 307 309 310 311 311 311 311 311 316 325 327
313 313 313 313 313 313 313 314 314 315 316 316 316 317 317 317 303 306 324 327 327 323 308 305 304 301 295 296 298 298 296 302 304 306 307 307 308 312 309 307 311 310 311 314 316
313 314 314 313 313 313 313 313 314 315 315 315 315 316 318 311 293 307 328 329 329 317 309 304 300 293 293 293 297 293 298 301 304 306 305 304 308 307 309 309 314 316 315 313 315
312 313 313 313 313 313 313 313 313 314 314 315 316 316 310 304 304 313 331 330 323 314 308 304 298 292 291 294 295 294 297 299 301 302 304 307 306 307 307 311 314 316 316 314 314
312 312 312 312 312 312 312 313 313 313 313 315 317 317 307 299 311 311 320 319 315 308 305 303 297 298 294 293 292 294 295 296 298 299 300 301 303 305 306 311 311 313 314 315 315
312 312 311 311 311 312 313 313 312 313 314 315 317 314 303 299 311 306 313 307 305 308 303 303 302 298 296 293 296 296 291 294 296 297 297 301 298 299 305 308 308 309 312 315 316
313 312 312 312 311 311 312 313 312 313 314 316 318 309 298 313 310 302 302 303 305 306 304 303 303 298 294 294 294 292 289 284 293 296 298 298 293 301 305 304 304 307 310 311 314
313 313 313 311 311 312 311 312 313 314 316 316 308 304 301 315 304 304 301 301 304 304 303 306 301 295 295 289 285 286 283 286 289 295 295 295 292 298 302 303 303 304 307 310 311
313 313 312 312 311 311 310 311 312 313 314 314 311 301 304 303 304 305 304 304 301 300 299 299 293 290 288 286 281 284 284 286 287 293 293 291 291 295 298 298 298 300 302 306 309
313 313 312 312 311 311 307 302 296 298 303 301 304 304 306 305 307 303 305 303 301 296 289 293 286 283 287 290 292 291 288 286 290 295 292 291 291 294 296 296 296 298 299 301 304
313 313 312 312 312 310 302 299 300 300 293 303 303 303 305 305 298 302 305 297 295 289 291 288 284 290 293 292 290 289 286 285 290 293 292 290 291 294 296 295 296 297 298 299 302
312 312 311 311 310 305 300 305 306 303 291 299 303 302 302 301 298 298 302 298 292 288 288 285 289 294 292 290 290 287 286 287 288 292 291 289 287 290 294 295 297 298 299 299 300
311 311 311 311 303 301 301 307 304 302 288 296 296 299 300 298 295 303 303 298 292 288 289 288 292 292 290 290 291 285 293 292 290 287 280 289 280 287 291 292 295 296 295 296 299
310 311 311 310 299 298 304 304 304 302 278 296 296 302 299 295 297 299 303 297 291 291 290 287 289 288 288 291 293 289 294 290 290 286 283 285 280 285 290 290 292 295 297 298 300
310 310 310 305 301 303 306 303 303 288 280 292 296 295 293 295 297 298 297 299 297 291 290 290 294 292 292 295 295 294 289 288 287 283 277 283 282 283 286 289 292 296 297 299 300
309 310 308 307 300 305 303 300 287 282 296 290 291 294 292 292 294 296 294 290 286 283 283 288 288 294 297 290 291 288 283 275 274 275 276 284 282 284 290 293 295 296 299 300 302
307 307 306 307 304 306 299 292 283 291 290 295 293 293 289 293 292 293 291 287 293 290 284 281 280 290 295 290 286 285 284 276 274 274 277 286 279 284 292 296 300 300 299 300 300
306 302 305 308 310 302 295 284 284 289 292 291 291 289 289 292 291 290 288 289 292 291 283 282 283 293 294 294 290 284 282 286 280 282 277 281 285 290 296 296 298 298 299 298 299
298 300 303 308 305 299 291 289 292 295 295 293 286 291 286 288 288 288 289 294 293 295 291 288 281 290 293 293 292 288 290 280 279 274 273 279 282 283 291 292 295 295 295 297 299
298 297 305 304 303 296 285 290 295 298 297 293 290 288 289 287 287 287 289 293 296 294 292 288 284 285 289 286 285 285 283 284 283 281 273 277 279 290 291 293 293 294 296 297 298
295 292 305 302 291 291 288 292 296 296 298 295 294 292 289 289 287 287 288 291 297 295 289 290 285 280 284 291 293 289 287 286 277 277 283 282 280 294 294 294 295 295 298 299 303
293 295 304 302 285 285 291 293 296 295 295 293 291 293 292 288 285 290 291 296 296 294 290 290 283 279 281 284 289 288 288 288 288 286 281 279 280 294 295 295 295 296 298 300 302
294 289 293 295 292 287 287 289 292 299 296 295 293 293 290 287 290 289 290 295 296 295 301 296 285 283 278 282 285 284 287 289 287 281 282 282 284 290 292 294 295 298 301 301 302
293 289 290 284 287 288 288 290 290 290 294 293 291 291 288 283 286 287 289 292 294 297 294 290 285 286 288 289 290 289 288 289 287 287 283 285 286 289 292 295 295 300 302 301 303
288 288 289 287 289 288 289 287 288 291 290 289 288 291 289 284 286 285 289 288 288 292 289 289 283 287 285 290 289 286 288 291 290 291 289 288 287 293 296 298 298 299 301 301 302
294 294 290 287 287 285 284 288 289 291 292 293 290 288 287 289 293 293 293 293 292 289 288 286 284 282 281 287 287 282 288 289 290 292 290 285 289 293 293 295 295 297 299 302 303

GFSSW_sfc_thetae_063.txt.gz
Theta_e
313 313 313 313 313 313 314 314 314 315 316 316 317 317 317 317 317 306 298 304 311 322 322 308 303 302 301 300 307 306 295 297 299 302 302 309 305 311 313 310 311 311 312 319 334
313 313 313 314 314 313 313 314 314 315 315 316 316 316 317 317 309 303 311 318 325 323 303 300 297 300 294 298 301 300 294 297 306 308 307 309 307 308 308 308 309 312 315 317 329
313 313 313 313 313 313 313 313 313 314 315 315 316 316 316 316 302 304 324 323 326 322 307 303 301 299 291 295 297 297 295 302 303 305 306 305 306 308 305 303 307 309 312 315 318
312 312 313 312 312 312 313 313 313 314 314 314 315 316 317 309 291 306 327 329 327 316 307 302 298 291 290 291 295 292 297 299 301 304 304 302 306 305 306 306 311 311 312 313 313
312 311 311 311 312 312 311 312 313 313 313 314 315 317 309 302 304 314 330 329 321 314 306 302 296 292 287 290 293 291 295 298 299 299 299 303 302 303 303 308 310 311 312 312 313
313 313 313 313 312 312 311 311 312 312 313 314 316 317 305 295 310 314 317 317 318 310 305 303 297 296 292 291 290 293 294 295 296 296 298 298 299 301 303 307 307 308 308 310 312
312 312 313 312 312 311 312 312 312 312 313 314 316 314 301 294 310 310 314 309 308 309 303 302 300 296 294 291 293 293 289 292 294 296 296 300 295 297 303 305 305 305 307 308 310
312 312 312 312 311 311 312 312 312 313 314 315 317 308 295 309 310 305 303 304 303 307 304 304 300 295 293 292 293 289 288 283 291 295 296 297 291 299 301 301 301 303 304 306 307
312 312 312 311 311 311 311 311 312 314 315 315 307 302 300 314 304 306 301 300 301 302 301 305 299 294 294 287 285 285 281 284 289 294 293 294 288 295 299 298 298 299 300 302 303
312 312 311 312 311 311 311 311 311 312 314 315 311 299 302 302 304 303 302 302 300 299 298 296 291 288 286 285 279 282 283 285 286 291 293 291 290 294 297 297 297 298 298 300 301
312 312 311 311 311 311 306 300 295 295 303 297 302 302 306 307 305 301 304 301 300 295 288 291 285 282 286 288 289 288 286 285 288 292 289 289 290 292 295 295 295 296 297 298 300
311 312 311 311 312 311 302 299 300 298 293 300 300 303 307 306 298 300 303 295 293 287 289 287 282 289 291 290 289 287 284 284 288 292 290 289 289 293 293 294 295 295 296 297 298
310 311 310 311 310 303 298 301 305 299 290 296 301 300 300 301 296 297 300 296 291 287 286 284 288 292 291 289 288 286 286 286 286 291 290 288 286 289 293 294 295 296 296 297 297
310 310 309 310 301 298 299 304 303 300 287 294 295 299 299 296 294 302 302 297 290 287 287 286 290 290 288 287 289 284 291 290 288 285 279 288 278 286 289 291 293 294 294 295 296
309 310 309 309 298 299 304 303 301 301 276 296 294 301 297 293 296 298 301 295 290 289 288 287 288 287 286 289 292 287 292 288 288 284 281 283 279 284 289 288 290 293 294 295 298
309 309 309 304 299 303 304 301 301 286 279 291 295 294 292 294 295 297 296 297 295 289 289 288 292 290 290 293 293 293 288 286 284 281 275 282 281 281 283 286 289 293 296 300 301
308 308 306 306 299 301 302 299 286 280 293 289 289 291 290 291 293 294 292 289 286 282 282 287 287 293 295 288 290 287 281 273 273 274 275 283 280 282 288 292 292 295 298 299 300
307 306 306 306 301 303 298 292 282 289 287 293 291 290 288 291 291 292 289 286 292 288 284 281 279 289 293 289 285 284 282 275 272 273 275 283 277 282 290 296 298 299 298 299 299
305 300 302 306 307 299 294 284 282 287 291 290 290 287 287 291 289 289 287 288 291 289 282 281 282 292 293 292 289 283 280 284 278 279 275 279 283 288 292 295 296 296 298 297 298
296 299 301 306 302 299 290 288 290 296 294 292 285 289 284 286 286 286 286 292 291 293 291 287 280 289 292 292 290 286 288 279 278 274 272 277 279 281 287 290 293 294 295 295 298
298 296 303 301 303 295 284 288 294 297 296 291 288 287 287 286 286 285 287 291 294 292 292 288 284 285 288 285 283 283 281 282 281 277 272 272 278 288 289 292 292 294 296 296 298
294 290 303 301 291 287 286 291 296 295 297 294 292 291 288 288 286 286 286 290 296 294 288 289 284 280 283 290 291 287 284 284 276 275 280 281 280 292 290 293 293 294 296 298 299
293 293 302 299 284 283 288 291 294 294 294 292 290 291 290 286 282 288 290 295 294 293 290 289 282 279 280 283 287 285 287 287 286 283 281 278 279 292 292 293 295 294 296 299 301
292 288 291 292 290 286 286 288 290 296 294 294 292 291 288 286 287 286 289 294 295 293 300 295 284 283 279 281 282 283 287 289 288 282 281 282 283 288 290 292 295 296 297 301 302
290 286 288 282 285 285 287 288 288 288 292 292 289 289 287 282 284 284 288 289 293 295 292 291 282 284 286 288 288 287 287 288 286 287 283 285 285 289 291 292 294 296 299 300 302
288 286 288 285 287 287 287 286 287 289 289 287 285 289 287 283 285 283 285 286 286 290 287 287 282 285 284 288 288 286 288 288 288 289 289 289 287 294 294 294 294 296 298 298 303
293 292 288 285 285 283 283 287 287 289 290 291 289 286 285 288 291 291 291 291 291 288 285 285 283 280 279 286 285 281 286 288 290 291 289 285 289 293 292 293 293 294 296 297 298

GFSSW_sfc_thetae_066.txt.gz
Theta_e
313 313 313 313 313 313 313 313 313 314 315 315 316 316 317 317 316 306 298 302 311 317 321 305 301 300 298 296 303 306 298 295 299 300 301 307 306 309 312 309 308 311 311 313 333
313 313 313 313 313 312 312 313 313 314 314 315 316 316 316 316 310 302 311 315 320 322 301 298 296 297 292 295 299 300 294 295 304 306 305 307 306 306 306 306 306 309 312 316 330
313 312 312 312 312 312 312 312 313 313 314 314 315 315 316 315 301 299 322 322 323 320 305 301 299 297 289 291 294 294 294 300 303 305 305 303 303 306 303 302 305 304 308 311 315
313 314 314 314 313 312 312 311 312 313 313 314 314 315 317 307 287 302 328 326 325 313 305 301 296 290 288 288 292 288 295 299 301 303 299 300 303 301 302 303 308 308 309 309 310
313 313 313 313 312 312 311 312 311 312 313 313 314 315 307 299 302 312 331 325 317 311 304 300 294 291 287 288 290 288 292 296 297 297 298 299 298 299 300 304 307 307 307 307 308
312 312 312 313 312 312 311 311 311 311 312 313 314 317 302 289 306 309 316 317 316 309 303 302 295 295 291 289 289 291 291 293 295 296 297 297 298 299 301 305 305 306 305 305 306
312 312 311 311 312 312 311 311 312 311 313 314 315 313 299 294 306 308 312 308 311 309 302 303 299 295 293 289 291 292 287 290 293 295 295 298 294 295 301 304 303 303 304 304 305
312 312 312 312 311 311 312 312 312 312 313 314 315 307 294 304 308 309 305 304 306 305 305 302 299 294 291 291 291 286 285 281 288 293 295 296 289 297 299 300 299 301 302 302 302
311 311 311 311 311 311 311 311 312 313 314 315 306 300 298 313 304 303 301 298 299 300 302 305 298 292 292 286 283 284 280 282 287 291 292 292 289 296 298 298 298 299 300 301 301
311 310 310 311 311 311 311 310 311 313 314 314 311 297 300 301 305 302 301 300 298 298 296 295 290 287 285 284 278 280 281 283 284 289 290 288 289 293 296 296 296 298 299 300 301
310 310 310 310 310 311 306 298 295 293 302 294 299 300 303 307 306 299 302 299 298 294 287 289 286 282 285 286 287 286 285 283 286 290 289 288 289 291 294 294 294 295 297 298 300
310 310 310 310 310 311 300 299 298 297 291 299 298 302 305 305 297 300 301 294 292 286 288 286 282 288 290 288 287 286 283 283 287 291 289 288 288 291 292 293 294 295 296 297 299
309 309 309 309 310 301 297 300 303 298 290 295 299 298 298 301 296 296 298 294 290 286 285 283 287 291 289 287 287 285 284 284 285 289 289 286 284 286 291 293 294 295 296 297 297
308 308 308 308 301 298 298 303 302 299 286 292 293 297 299 296 293 301 300 296 289 286 286 285 289 289 286 286 288 282 290 289 287 284 278 286 276 283 287 289 291 293 292 294 295
308 308 308 308 297 299 302 302 300 299 276 294 293 299 295 292 294 296 299 294 289 288 287 286 286 285 285 287 290 285 290 287 286 282 279 281 277 281 286 285 287 291 293 294 298
308 309 308 303 298 301 303 300 300 285 278 289 293 292 291 293 294 296 295 296 294 289 288 287 290 288 288 291 291 291 286 284 282 280 274 279 278 277 281 285 288 291 294 297 300
308 308 306 304 297 300 300 298 286 279 291 287 287 290 288 289 292 293 290 288 284 281 281 287 287 291 293 286 288 286 280 273 272 273 273 281 279 281 287 290 291 293 296 298 298
307 306 306 305 301 302 298 291 281 287 286 291 289 289 286 289 289 290 288 286 290 287 282 280 279 288 293 287 284 283 280 274 271 272 273 282 276 280 289 291 294 297 298 298 298
305 300 301 305 305 299 294 283 282 286 290 288 289 286 286 289 288 287 285 286 289 288 282 280 281 291 292 291 289 282 279 282 277 277 273 277 281 287 291 291 293 295 296 296 296
298 299 300 302 301 297 289 287 289 295 293 291 284 288 283 285 285 284 285 290 290 292 289 286 280 289 291 290 289 285 287 278 277 273 272 276 277 279 285 287 290 292 294 296 296
297 296 302 301 301 294 284 287 293 296 294 290 287 285 286 285 285 284 285 289 293 291 289 286 283 284 289 285 282 282 280 282 280 277 272 271 276 286 287 288 289 292 294 295 295
294 290 301 300 290 285 285 290 295 293 296 293 291 289 287 287 285 285 285 289 295 293 287 289 283 280 284 288 289 285 283 282 274 273 276 275 279 291 289 289 291 292 296 297 297
292 292 301 298 284 284 287 290 292 292 293 291 289 290 289 285 282 286 288 294 292 292 289 290 282 278 281 282 286 283 285 284 283 283 280 277 279 291 290 292 294 294 296 296 300
291 286 290 291 289 285 285 287 289 295 293 292 290 290 287 285 286 285 287 292 293 292 298 295 285 283 278 281 281 281 285 286 285 281 280 281 283 288 291 291 292 294 296 297 299
289 286 287 282 284 285 286 288 288 287 291 290 287 287 285 281 283 284 286 287 291 294 290 290 283 285 286 287 287 286 285 286 284 285 282 284 284 288 291 292 294 295 297 297 298
288 286 287 284 286 285 286 285 286 288 288 286 284 287 285 282 284 283 285 285 284 289 287 288 283 285 283 287 287 285 287 287 287 287 287 287 286 293 294 294 294 294 295 295 296
292 293 290 285 284 283 283 286 287 288 289 290 287 286 284 286 289 289 289 288 288 286 286 286 285 282 279 284 284 280 284 286 287 289 288 283 289 292 293 294 295 293 295 295 297

GFSSW_sfc_thetae_069.txt.gz
Theta_e
313 313 312 312 312 312 312 312 313 313 314 315 316 316 316 316 315 311 304 306 314 319 320 307 305 305 304 304 310 313 303 299 301 300 303 310 309 313 316 312 313 315 315 317 321
314 314 314 314 313 312 312 312 312 313 314 315 315 315 315 315 311 307 315 315 317 321 305 302 301 302 300 302 306 305 300 300 306 307 305 309 309 310 309 310 310 312 315 317 318
314 314 314 314 313 313 312 312 312 312 314 314 314 315 315 315 305 304 322 321 321 321 308 305 304 303 298 301 302 303 299 303 306 308 309 308 307 309 307 305 310 308 311 313 315
313 314 314 313 313 313 312 312 312 313 312 314 314 314 315 312 294 308 327 324 324 314 310 304 303 299 297 296 300 297 300 303 305 307 305 304 305 303 305 307 309 310 311 313 313
313 313 313 313 312 312 312 311 311 311 312 313 314 314 312 304 305 315 328 325 318 312 307 305 301 299 296 297 298 297 298 300 302 302 301 301 300 302 303 307 308 310 310 311 312
312 312 312 313 312 312 312 311 310 310 311 313 314 315 307 297 310 315 321 318 315 311 307 307 302 302 298 298 297 298 298 299 300 301 301 299 300 301 304 306 306 307 309 310 310
312 312 312 312 312 312 311 311 312 311 312 313 314 314 304 299 311 313 317 313 316 312 305 308 307 301 300 296 299 298 295 297 298 299 299 301 296 298 303 305 305 306 307 307 308
310 310 310 311 311 312 312 311 311 313 313 314 315 312 301 306 312 313 312 310 312 314 310 308 306 302 300 300 297 294 294 290 296 297 298 299 293 299 301 301 302 303 305 306 308
311 310 310 311 311 311 311 312 313 313 314 316 312 307 302 316 308 308 308 303 304 305 307 306 304 299 299 295 293 293 288 289 292 298 297 296 293 297 301 301 301 302 304 304 306
310 309 310 310 311 310 311 310 313 317 315 315 312 303 306 304 309 308 307 304 302 302 300 300 299 296 295 294 287 287 288 290 290 294 297 295 294 297 299 299 300 301 302 303 305
310 309 310 310 310 310 309 307 303 301 308 300 301 301 303 309 309 304 305 303 302 299 294 295 294 291 292 293 293 291 290 289 292 295 295 294 294 296 298 299 298 300 301 303 304
309 309 309 309 310 311 306 305 303 304 297 302 302 303 306 307 300 303 306 299 297 293 294 293 290 294 294 293 291 291 290 289 293 295 294 293 292 296 297 298 299 300 300 302 303
308 309 309 309 310 306 304 305 308 304 297 299 301 301 302 305 299 300 302 299 296 292 292 290 291 294 292 292 291 291 290 290 290 293 294 292 290 291 296 298 299 300 302 302 302
308 308 309 308 306 305 305 308 307 305 293 294 297 301 302 302 296 304 304 300 295 292 292 292 294 292 292 291 292 288 293 292 290 289 285 292 282 290 293 294 296 298 301 301 302
308 309 309 308 305 305 307 308 307 306 282 296 296 304 300 297 298 299 303 299 295 293 293 291 291 291 290 291 294 290 294 292 291 289 287 288 284 288 292 292 295 298 300 302 305
309 309 308 307 306 308 307 307 308 293 282 292 296 295 296 297 297 299 298 300 298 294 293 293 295 294 293 295 295 294 292 291 289 288 281 285 285 286 290 292 295 298 300 302 306
308 309 307 306 304 306 307 306 293 286 293 290 291 293 292 293 294 295 294 293 291 287 288 291 292 296 296 292 293 293 289 282 280 280 280 287 284 287 293 295 296 297 299 303 306
307 307 308 308 310 308 306 299 287 290 289 294 292 292 290 293 293 293 292 291 294 292 289 287 285 292 296 293 290 290 288 282 274 277 281 286 282 288 294 297 299 300 302 304 304
305 309 309 310 308 306 302 291 290 289 292 291 292 289 290 292 292 291 291 291 294 295 288 287 286 294 295 295 294 289 286 290 284 285 281 284 287 293 296 296 297 299 301 302 304
306 306 308 307 307 305 297 291 292 296 295 294 287 290 287 289 289 290 290 293 293 296 297 291 285 292 294 295 294 292 293 284 286 277 276 282 284 285 291 293 296 298 300 302 305
305 304 308 306 308 301 293 292 295 299 296 293 291 289 290 289 290 289 289 292 295 295 296 293 290 288 292 290 288 289 288 288 288 286 279 278 283 293 293 295 295 298 300 302 304
303 298 307 306 298 292 292 292 295 295 298 296 294 293 291 291 289 289 289 292 297 297 292 295 291 285 288 294 294 292 290 290 284 281 285 284 283 296 297 297 298 299 301 303 305
298 299 307 306 293 291 292 292 293 293 295 294 292 293 293 291 288 290 291 296 296 296 294 295 289 283 284 288 291 288 290 291 290 289 283 281 284 296 297 298 299 300 301 303 304
297 293 296 297 294 290 288 288 290 296 294 294 293 294 291 290 292 289 290 294 295 296 298 298 291 287 282 285 288 286 288 290 290 284 285 285 287 292 295 296 299 300 302 302 303
294 291 292 288 289 290 289 289 288 288 293 293 291 290 288 286 287 288 291 291 293 295 295 294 286 289 289 290 290 289 288 289 288 289 284 287 288 292 296 297 299 301 302 301 301
293 291 292 291 290 289 289 288 288 289 289 288 288 289 289 286 288 286 288 289 288 292 293 295 286 289 286 289 289 287 289 290 290 290 289 290 289 297 299 300 299 300 301 300 301
296 296 294 288 288 288 287 288 289 289 289 292 290 288 287 289 292 293 293 293 292 290 289 290 287 286 282 287 287 283 287 289 290 292 291 288 293 298 297 298 299 300 301 300 301

GFSSW_sfc_thetae_072.txt.gz
Theta_e
315 315 315 315 315 314 313 314 313 313 314 315 316 316 316 316 316 318 311 310 314 323 318 310 310 310 310 310 314 316 306 303 305 306 308 312 310 315 319 316 317 318 319 321 323
315 315 315 315 315 314 313 313 313 313 313 315 315 316 316 316 316 311 318 315 319 321 310 306 304 307 306 307 310 309 305 304 310 311 310 312 311 312 311 312 314 317 320 321 321
314 314 314 314 315 314 313 313 313 313 314 314 315 315 315 317 312 307 323 321 319 323 311 308 307 306 303 306 307 308 304 308 309 311 313 311 312 315 309 307 312 313 315 317 318
314 314 314 314 314 314 313 313 313 312 313 313 314 315 316 318 299 313 326 323 324 317 311 305 305 303 301 301 306 302 306 307 309 310 310 309 312 310 312 310 312 314 315 316 317
314 314 313 313 313 314 313 313 312 312 312 312 314 315 316 309 306 319 327 324 318 313 310 307 303 302 299 301 302 301 303 305 307 308 309 309 308 308 309 312 311 312 314 314 315
312 311 312 312 313 313 313 312 311 312 311 312 314 315 311 301 315 318 321 318 314 312 309 309 305 305 302 301 300 303 302 303 305 305 306 304 305 306 307 309 307 311 310 312 314
311 311 311 311 312 312 312 312 311 311 312 313 315 316 307 303 316 318 319 316 314 312 307 309 309 305 303 300 304 302 299 301 302 303 303 305 301 302 308 308 308 314 311 312 313
311 311 311 311 312 312 312 312 312 312 313 314 315 315 304 310 316 316 316 313 314 315 312 310 310 306 303 304 301 298 299 295 301 301 303 302 296 303 305 306 306 307 312 314 312
311 310 310 311 311 312 311 312 314 314 314 315 316 313 304 317 311 311 313 307 308 309 310 308 308 303 303 299 297 298 293 294 296 301 300 300 297 304 305 305 303 303 307 309 309
310 310 310 310 311 311 311 312 317 317 317 318 316 308 309 305 310 311 312 309 305 305 304 305 303 300 300 297 291 293 293 294 294 299 300 299 299 303 304 304 303 303 304 307 308
310 310 310 310 311 311 313 315 310 308 311 305 304 304 305 310 312 309 309 306 306 303 297 301 297 295 297 298 297 295 294 293 296 299 297 298 298 301 304 304 303 303 303 305 307
309 309 310 310 310 311 313 309 307 309 302 307 306 306 308 309 302 306 310 302 301 297 298 297 294 298 298 297 295 295 294 294 297 298 298 297 297 300 302 303 304 304 304 304 306
309 309 309 310 310 312 312 309 314 311 303 302 305 304 305 307 302 302 306 304 299 297 297 294 296 298 296 295 294 295 293 294 293 297 298 297 295 298 300 302 303 305 306 305 305
308 309 309 309 309 315 311 314 315 312 299 298 301 304 306 306 300 307 307 304 300 296 296 296 298 296 295 294 296 292 297 295 294 293 289 297 287 295 298 299 301 304 305 305 305
309 310 309 307 316 312 312 316 315 311 288 298 300 308 304 301 301 302 307 304 298 298 297 295 295 295 294 295 297 294 297 295 295 293 292 292 289 294 296 296 298 301 303 305 307
309 310 309 312 317 313 316 315 313 298 287 295 300 298 299 301 300 302 302 304 303 299 299 297 302 298 297 297 298 298 296 296 296 293 286 291 290 291 294 296 299 301 302 304 308
308 309 310 313 311 317 316 312 298 291 297 294 295 297 297 297 298 299 299 298 295 292 293 296 296 299 299 296 298 297 294 287 285 286 284 292 289 292 296 297 298 299 301 305 308
307 307 311 317 318 316 313 303 291 295 294 297 296 297 295 297 298 297 297 295 299 297 293 291 289 296 300 297 295 295 294 287 280 282 285 291 286 292 298 300 301 303 304 306 307
305 318 318 319 316 315 306 295 294 294 295 294 296 293 294 295 295 295 295 295 297 299 292 291 291 298 298 299 298 294 290 295 288 289 285 288 292 296 299 299 301 302 303 305 307
313 315 315 315 316 312 301 294 296 298 298 297 291 294 290 293 292 293 294 296 295 299 301 295 289 296 297 298 299 296 297 288 289 280 280 286 289 290 294 296 299 300 302 304 307
314 308 314 315 315 307 298 297 298 301 300 296 294 293 293 292 294 293 293 296 297 297 300 297 294 292 295 293 292 292 291 291 291 290 283 282 288 298 296 298 299 300 303 305 307
309 302 314 315 302 304 298 297 296 298 300 298 298 295 294 294 293 293 293 296 299 299 294 297 293 289 290 296 298 296 293 292 288 285 289 288 288 300 300 301 301 302 304 306 308
301 305 315 312 298 297 297 295 296 295 296 296 296 297 297 294 291 294 295 299 299 298 295 297 292 286 288 292 295 292 294 294 293 293 287 285 288 300 301 301 303 303 304 306 308
300 297 302 307 302 294 292 292 292 298 297 297 296 297 295 293 297 293 294 297 298 298 298 299 294 288 284 288 290 289 291 293 292 287 287 288 291 296 299 300 302 303 305 306 307
299 297 297 295 297 295 295 293 291 290 295 297 294 293 292 290 291 291 294 295 297 298 297 297 289 291 291 291 291 290 290 291 290 291 287 290 291 295 299 300 302 304 305 304 305
297 295 298 295 295 294 293 292 291 292 292 290 290 292 293 290 292 290 292 292 291 295 294 296 289 291 288 290 291 288 291 292 292 292 292 293 293 300 302 303 303 303 304 304 305
300 302 297 295 292 292 293 291 291 293 292 293 293 292 291 293 296 296 296 296 295 293 293 291 290 286 284 290 290 286 290 292 293 294 294 290 296 301 301 301 302 304 304 304 305

GFSSW_sfc_thetae_078.txt.gz
Theta_e
316 316 315 315 316 315 315 314 315 315 315 315 316 316 317 318 317 316 314 317 316 328 315 308 309 313 314 311 313 314 303 301 302 304 307 313 312 317 318 314 318 320 320 322 325
315 315 316 316 315 315 315 314 314 315 315 315 315 316 316 317 314 315 320 327 323 322 312 308 306 308 307 308 310 307 303 302 308 309 308 311 312 314 313 313 314 317 322 324 324
313 313 314 314 314 315 314 314 314 314 315 315 315 315 316 317 314 312 326 325 324 318 315 313 310 308 304 307 308 307 303 307 309 311 311 310 310 314 312 311 314 315 319 322 322
312 313 313 313 313 313 314 314 314 314 315 314 314 315 316 314 304 312 328 325 322 317 319 310 307 303 302 302 307 303 307 308 309 311 310 309 312 310 311 313 318 319 321 320 321
312 312 312 313 312 313 313 314 313 314 313 314 314 315 314 313 312 317 329 323 318 318 314 311 307 305 301 303 305 303 305 307 309 309 309 310 308 308 309 314 317 319 318 319 319
312 312 312 312 312 313 313 313 313 313 313 313 315 315 312 305 320 318 316 316 316 313 312 311 309 309 304 304 303 305 305 305 307 307 308 306 306 307 310 314 315 316 316 317 317
312 312 312 312 312 313 313 313 314 313 314 314 315 314 310 307 316 320 318 315 316 313 309 312 311 307 307 303 307 306 301 303 304 305 304 306 302 303 309 311 310 312 314 316 316
311 312 311 311 312 312 313 314 313 314 315 315 316 314 307 317 317 315 316 314 315 314 312 313 312 307 305 307 304 301 301 296 302 304 305 304 297 304 309 309 308 309 311 313 315
311 311 311 311 312 313 313 313 314 318 317 316 313 312 308 315 308 313 314 311 312 312 312 312 309 304 304 300 297 299 293 296 299 305 304 303 298 304 308 308 308 309 311 311 313
310 311 312 311 312 312 313 312 317 315 316 315 315 310 312 309 309 312 314 313 308 308 306 306 304 300 300 298 290 294 295 298 298 302 303 300 300 304 306 306 307 309 309 310 312
310 310 311 312 312 312 312 317 313 312 316 309 311 309 309 312 314 311 313 310 308 305 299 303 298 296 299 301 301 300 298 296 300 303 301 300 300 302 305 306 306 307 309 310 312
310 310 311 312 312 312 311 313 311 312 304 312 313 310 311 312 305 308 312 304 303 298 302 300 296 301 302 301 299 298 296 295 298 301 300 299 298 302 304 305 307 308 309 310 311
310 310 311 312 312 311 315 313 317 316 304 308 310 306 307 309 305 305 309 306 301 299 300 297 300 304 301 299 297 297 295 295 295 299 301 299 296 299 303 305 307 308 310 311 311
310 310 311 311 307 317 314 317 317 318 298 304 303 305 308 308 303 310 311 306 302 298 300 299 303 301 299 297 298 293 299 298 297 295 290 299 289 297 301 302 305 306 308 309 310
309 310 311 310 313 315 315 317 316 314 291 303 304 313 309 304 305 305 311 306 299 299 300 297 299 298 297 297 300 296 300 298 297 294 294 294 290 295 300 299 302 306 307 308 309
309 309 310 315 315 318 317 317 315 300 291 300 304 302 301 304 304 306 305 308 306 300 300 299 304 302 300 302 301 302 298 297 296 294 287 292 291 292 296 300 302 305 306 307 308
308 307 307 315 313 319 317 312 299 294 304 300 299 302 301 300 301 303 301 300 297 294 294 299 300 303 303 298 301 299 294 287 285 286 286 295 292 293 300 301 302 303 305 306 309
306 306 311 314 318 319 314 304 292 300 301 304 301 301 297 300 300 301 300 297 301 299 295 292 290 299 303 299 296 297 295 288 281 283 287 294 288 293 303 304 304 306 306 306 306
304 316 314 318 323 318 307 295 296 301 303 300 300 296 296 300 300 299 298 297 299 300 293 292 292 301 302 302 301 296 292 297 289 291 286 290 294 299 302 302 303 303 304 305 307
306 315 315 323 321 314 303 296 301 305 303 301 295 297 293 296 296 297 297 300 299 302 302 296 290 298 299 301 301 298 300 290 290 281 280 286 288 290 297 298 301 301 303 305 308
309 311 318 321 318 306 297 301 304 306 303 298 296 296 296 294 295 294 295 298 300 300 302 299 295 293 298 295 294 294 292 292 292 290 283 282 286 298 297 300 301 302 304 306 307
309 304 318 318 302 305 302 303 301 301 304 301 300 298 296 296 295 295 294 297 302 301 296 300 296 290 292 299 300 297 294 293 286 285 288 286 287 299 300 302 301 301 304 306 307
302 305 318 311 296 301 303 302 302 301 300 299 298 300 301 296 293 296 297 301 302 300 298 299 293 287 288 293 297 291 293 294 293 291 285 283 287 300 302 301 302 302 303 305 308
304 298 307 308 306 301 299 298 298 304 302 300 299 300 298 296 298 294 296 300 301 300 303 300 294 290 285 288 292 290 292 292 289 284 285 287 289 295 299 299 300 301 305 304 305
305 302 304 297 299 300 300 299 297 297 302 302 299 298 297 293 293 292 295 296 299 302 300 297 290 292 291 292 292 291 291 291 290 291 288 290 290 295 298 299 302 303 303 303 304
302 299 301 298 301 300 299 298 297 298 298 296 295 296 296 293 293 291 293 294 293 297 296 298 289 291 288 291 292 290 292 292 292 292 291 292 292 298 300 302 302 302 303 303 306
307 306 300 297 299 298 298 297 297 299 299 300 298 296 294 295 297 297 297 296 295 293 293 293 290 289 285 290 290 286 290 292 293 295 294 290 295 299 299 301 302 304 305 305 307

GFSSW_sfc_thetae_081.txt.gz
Theta_e
315 314 314 314 315 315 314 314 315 315 315 316 316 316 317 317 317 312 308 317 317 326 320 304 303 304 308 304 306 305 297 295 297 299 302 307 305 310 313 311 314 317 317 320 321
314 313 313 314 314 313 314 314 315 315 315 315 316 316 316 316 310 308 320 325 325 327 306 301 299 301 299 301 301 299 294 296 302 304 303 305 306 306 310 309 309 313 319 323 320
312 313 313 313 313 313 313 314 314 315 315 315 315 315 315 315 307 310 331 327 325 319 309 310 309 301 295 298 299 299 296 300 303 305 306 305 306 308 306 305 309 310 314 319 319
313 313 313 313 313 313 313 313 314 315 315 315 314 315 315 311 299 307 330 327 323 313 311 313 305 294 292 293 298 295 301 303 304 306 305 304 306 306 306 305 314 315 316 317 317
312 312 313 312 313 313 312 313 313 314 314 314 314 315 311 305 308 320 332 326 315 313 312 310 303 297 292 295 297 295 298 302 304 303 302 305 304 303 304 308 310 316 317 316 315
311 312 312 312 312 312 313 312 312 314 314 314 315 315 308 298 313 318 317 314 313 312 311 306 302 303 297 297 295 299 299 299 300 299 300 300 300 302 305 308 307 308 313 314 314
312 311 312 312 312 312 312 312 313 314 315 315 315 313 305 302 314 314 313 310 312 312 306 307 307 302 300 296 300 300 295 298 299 299 298 301 297 299 304 306 305 306 309 312 313
311 311 311 312 312 312 313 314 314 314 315 316 316 310 302 313 312 310 312 312 312 311 309 308 307 301 298 300 299 294 293 288 295 300 301 298 292 300 304 303 303 305 306 307 311
310 311 311 311 312 313 313 313 314 317 318 316 309 305 301 315 308 311 310 308 310 310 308 311 303 298 298 292 289 291 286 289 294 300 299 298 294 301 303 303 301 302 304 306 305
310 310 311 311 312 313 313 313 314 315 314 314 311 303 310 309 310 309 309 311 308 306 304 301 297 293 291 288 283 287 288 292 292 297 299 295 295 299 302 301 301 301 303 304 306
310 310 310 311 312 312 310 309 306 305 309 304 306 306 309 313 312 307 311 308 307 302 293 298 291 288 292 295 295 295 293 292 295 299 295 294 294 297 300 300 298 299 302 303 305
310 310 311 312 312 312 307 305 308 306 299 310 311 312 314 312 304 307 311 302 301 294 297 293 289 297 300 299 297 294 291 290 294 297 296 293 293 296 298 298 299 300 300 302 303
310 310 310 312 312 307 306 311 316 309 298 303 308 308 309 306 302 304 307 303 298 294 294 291 296 301 299 297 295 292 291 291 291 296 296 294 291 294 299 300 301 302 303 303 303
310 310 310 310 309 310 310 316 311 312 292 299 304 305 305 305 301 309 309 304 298 294 295 294 299 299 296 295 295 289 296 295 294 290 284 293 283 291 295 297 300 301 303 303 303
310 309 309 309 306 306 311 310 309 308 284 303 302 308 305 300 303 304 309 304 296 296 295 293 295 295 294 295 298 292 297 295 294 289 286 288 284 290 294 294 297 300 301 303 304
309 309 308 310 309 311 315 312 308 294 286 299 302 300 299 301 302 304 303 304 303 297 296 295 300 298 296 299 299 299 295 293 290 286 282 287 286 287 291 293 297 299 303 303 304
309 308 305 309 306 313 314 306 292 288 304 300 298 300 298 297 299 300 298 296 291 288 289 295 296 300 302 296 298 296 290 282 279 279 280 290 287 289 295 300 300 299 300 302 303
307 306 307 308 310 312 310 298 287 297 299 305 302 300 295 297 297 298 296 293 297 297 292 288 287 297 301 297 294 293 289 284 278 276 282 291 284 289 298 302 302 303 301 302 301
305 310 309 311 313 313 302 289 291 298 302 300 299 295 294 297 296 296 295 294 296 297 289 287 288 299 299 299 297 291 288 292 288 289 283 284 289 295 297 298 300 301 302 298 299
300 305 312 319 316 309 298 293 297 303 304 299 291 295 290 294 293 293 293 299 298 300 299 293 287 297 298 299 297 294 295 285 286 280 277 282 285 285 291 296 298 300 298 301 301
302 305 315 318 315 302 291 295 301 307 302 297 294 292 292 292 293 292 293 297 300 298 299 296 290 292 295 292 290 290 286 290 289 284 280 278 280 293 293 295 296 299 301 301 301
299 297 315 316 300 299 296 301 304 301 303 300 298 296 294 294 293 292 292 296 301 300 294 296 292 285 290 296 297 292 291 288 284 281 286 284 282 297 295 296 298 297 300 301 303
295 299 311 312 292 293 299 299 301 299 299 299 297 297 296 293 289 294 295 300 300 298 296 294 287 281 284 287 292 289 291 292 291 289 282 280 281 296 296 298 299 298 299 302 304
297 296 304 304 303 298 295 296 296 302 300 301 298 298 295 293 295 293 294 298 300 298 306 300 289 285 281 285 288 287 289 290 287 282 282 284 285 290 294 296 297 298 299 300 303
299 298 300 293 295 294 296 297 295 295 301 300 295 295 293 288 290 290 293 293 296 299 295 293 285 288 290 291 291 288 288 289 287 287 284 286 287 291 294 296 297 300 300 300 303
297 296 297 295 297 296 296 296 296 296 296 294 293 295 294 289 290 288 290 289 289 292 290 290 284 288 286 290 290 288 290 290 290 290 290 291 289 297 300 301 299 298 301 300 301
302 302 296 295 294 292 294 295 295 296 297 298 296 294 292 293 293 292 291 291 291 288 286 285 283 281 279 287 287 282 288 290 291 293 292 287 291 296 295 297 297 298 300 303 304

GFSSW_sfc_thetae_084.txt.gz
Theta_e
313 313 313 314 314 313 313 314 314 315 316 316 316 316 316 316 316 309 304 313 316 326 321 304 301 301 303 300 303 303 292 290 293 297 299 305 301 306 310 310 313 318 315 318 317
313 313 313 313 313 313 313 313 314 314 315 315 316 316 315 316 308 306 316 328 331 326 304 299 296 297 294 298 299 297 291 293 299 300 299 303 303 304 307 308 308 310 316 319 316
313 313 313 313 313 313 313 313 313 314 314 315 315 315 315 314 304 310 329 329 327 321 306 307 307 302 291 293 296 295 292 297 300 302 303 303 303 305 306 304 308 308 312 315 313
312 312 312 313 313 312 312 312 313 313 314 314 314 314 315 309 296 305 333 331 328 310 309 310 306 292 290 290 294 291 297 299 301 303 302 301 305 303 304 306 312 313 313 314 312
312 312 311 312 312 312 312 312 312 312 313 314 314 314 309 301 305 314 332 328 315 311 309 308 303 296 289 291 293 290 295 298 301 301 301 303 302 302 303 306 309 312 313 313 313
311 311 311 311 312 312 312 312 312 313 313 313 314 315 306 293 306 319 318 315 310 306 309 306 302 300 295 294 292 295 296 296 297 296 296 297 298 298 302 305 305 306 307 311 312
311 311 311 311 311 312 313 313 313 314 314 314 315 312 303 297 311 316 313 308 310 311 307 304 303 300 297 295 296 296 292 294 295 296 295 297 295 297 301 303 302 303 305 308 312
312 312 311 311 311 312 312 313 313 314 316 316 315 308 298 311 309 307 309 308 310 310 307 306 304 299 295 295 295 292 289 285 293 297 298 296 291 298 301 300 301 303 303 308 310
312 311 311 311 311 312 313 313 314 315 318 317 306 303 298 317 311 311 309 308 309 309 307 309 301 296 296 289 286 287 284 287 291 296 296 295 293 299 301 300 300 300 301 302 305
312 311 311 311 311 312 313 313 313 313 315 314 310 300 305 308 308 308 307 309 305 304 302 300 294 291 289 286 281 285 285 288 289 294 294 292 292 296 299 299 299 298 300 301 302
311 311 311 311 311 312 308 305 304 303 306 301 302 302 307 314 309 304 307 305 305 300 292 295 289 286 290 291 293 292 290 289 292 296 292 291 291 294 297 297 297 297 298 300 301
311 311 311 310 311 312 304 301 307 302 296 307 308 306 310 313 307 305 308 300 298 292 294 291 287 294 296 296 294 293 290 288 292 295 293 291 291 294 296 296 297 297 298 298 299
311 311 310 311 310 306 303 307 314 308 296 301 307 307 308 310 306 303 305 301 296 293 292 288 293 298 296 294 293 292 289 288 289 293 293 291 288 291 296 297 299 299 299 299 299
311 311 310 308 307 306 305 312 308 307 290 297 301 305 307 307 299 307 307 302 296 293 293 291 296 296 294 293 293 287 294 294 292 288 283 291 282 288 292 294 297 298 297 298 300
311 310 310 308 300 302 308 311 309 305 282 304 301 307 303 299 301 303 307 301 295 295 293 291 293 292 292 293 296 292 296 293 292 287 284 286 282 285 291 291 294 297 299 300 300
311 310 309 307 304 307 311 310 306 293 285 299 301 298 296 298 300 302 302 302 301 294 294 294 298 295 294 297 297 298 293 290 288 284 280 284 284 286 287 291 293 297 300 301 301
310 309 306 306 301 307 307 304 291 285 302 298 298 298 296 295 297 298 296 293 290 286 286 292 294 297 299 293 295 293 286 279 280 278 280 287 284 287 291 296 298 298 298 299 300
308 307 306 306 303 306 306 297 285 295 297 302 299 298 294 296 296 296 293 289 293 292 288 287 285 295 299 295 290 291 288 283 278 276 281 289 282 287 296 298 300 300 300 300 301
306 302 306 307 306 308 300 289 290 297 300 299 296 292 292 295 295 293 291 291 294 294 287 286 287 298 299 299 296 290 287 293 287 288 283 284 288 293 296 298 299 298 298 298 299
301 301 306 314 311 306 296 292 295 301 301 299 290 293 288 291 291 291 291 296 295 298 294 290 284 295 297 299 298 294 295 285 285 279 278 283 284 284 290 293 297 299 298 298 299
298 297 310 314 311 300 290 293 298 304 304 297 293 291 292 290 290 290 292 296 299 296 295 291 288 289 294 292 290 289 287 287 285 283 279 275 280 291 292 295 294 296 299 297 299
295 292 307 311 297 296 293 298 301 300 302 299 298 294 291 292 290 291 291 294 299 297 291 292 288 284 288 295 297 292 289 287 280 281 284 283 281 295 295 295 296 298 299 299 300
295 295 306 307 292 291 296 297 300 299 298 298 297 296 295 291 287 293 295 300 299 296 293 292 285 280 283 287 290 288 290 290 288 285 279 278 280 293 294 295 295 297 299 299 300
293 291 299 300 299 293 292 294 294 301 299 299 296 296 293 291 293 290 291 297 297 296 303 296 287 284 280 283 286 285 288 288 285 276 281 282 285 290 292 293 295 296 298 298 298
298 293 296 290 292 293 294 294 294 294 298 298 294 294 291 287 289 289 291 292 295 297 292 290 284 286 288 290 289 288 287 287 284 285 282 285 286 289 293 295 296 297 300 300 300
296 294 295 293 295 293 293 292 293 294 293 293 292 294 294 289 289 287 288 288 288 291 288 286 281 284 283 289 289 286 287 288 288 288 288 290 288 296 298 298 298 299 300 300 301
300 301 296 293 293 291 291 293 294 295 295 296 295 293 291 293 293 292 291 291 290 287 286 284 281 280 277 285 286 281 286 289 290 293 292 287 292 297 296 297 297 297 300 301 301

GFSSW_sfc_thetae_087.txt.gz
Theta_e
313 313 313 313 313 313 313 313 313 313 314 314 314 315 316 316 315 308 301 308 313 323 324 305 299 299 302 298 299 300 291 289 293 296 299 302 300 304 307 305 309 313 313 315 315
312 312 313 312 313 312 312 312 312 313 313 313 314 314 315 315 306 304 312 322 326 329 305 299 295 296 293 296 297 295 289 291 297 299 298 300 300 303 302 303 303 309 315 315 314
312 312 312 312 312 312 312 312 312 313 312 313 313 314 314 313 303 309 327 326 331 328 304 304 305 302 290 292 295 292 291 295 298 300 301 300 300 303 302 301 304 305 309 313 312
312 312 312 312 312 312 312 312 312 312 312 313 313 314 315 307 294 304 332 329 330 312 304 307 304 292 289 290 292 289 295 296 298 300 299 299 302 301 301 303 306 310 311 312 311
311 311 312 311 312 311 312 312 311 311 312 312 313 314 306 296 300 311 333 330 316 308 307 306 300 296 291 290 292 289 292 295 297 296 297 300 299 300 301 304 307 308 309 309 312
312 311 311 311 311 311 311 311 312 311 313 313 313 314 303 288 299 314 316 315 308 305 307 305 302 299 293 292 291 294 294 294 295 296 294 295 296 296 299 303 304 305 305 305 306
312 311 311 311 311 311 311 311 313 313 313 313 314 312 302 292 307 316 311 305 305 308 306 307 304 298 295 293 294 294 290 293 293 294 294 295 293 294 299 301 301 302 303 304 306
313 311 311 312 311 311 312 313 313 314 314 314 315 306 296 306 308 306 309 307 308 308 307 307 302 297 293 294 293 290 287 284 291 294 296 295 289 297 300 298 298 300 300 303 304
313 312 311 311 312 312 312 313 314 315 316 317 304 300 296 314 310 310 308 305 308 308 306 309 299 294 294 288 285 286 282 284 289 294 294 293 289 296 298 297 297 298 299 301 302
314 312 312 311 311 311 312 313 313 313 315 313 310 298 303 305 310 310 307 308 305 303 300 298 293 289 287 285 280 283 284 286 287 292 292 291 290 294 297 296 296 296 297 298 300
313 313 312 312 311 311 307 304 301 300 304 301 300 300 304 312 311 303 305 305 303 298 291 293 288 285 288 289 291 290 287 287 291 294 291 290 290 292 295 294 295 296 296 296 298
313 312 312 312 311 310 303 299 304 302 297 305 306 304 307 310 305 309 305 298 296 291 292 289 286 292 293 293 291 289 287 287 291 293 290 290 290 292 294 294 295 296 296 296 297
312 312 312 311 310 305 302 304 309 305 296 299 305 304 305 307 303 305 303 299 295 291 291 287 291 296 294 292 291 290 287 288 288 292 291 289 287 290 294 295 297 297 298 298 298
311 311 312 310 305 305 303 310 309 304 289 295 299 304 306 306 299 310 306 301 294 291 291 289 295 293 292 291 291 286 292 292 291 287 283 289 282 286 290 292 294 296 296 296 297
311 312 311 309 299 301 308 309 306 305 283 301 299 307 305 301 300 301 305 300 294 293 292 290 291 291 290 292 293 290 294 292 291 286 282 284 281 284 289 289 292 294 295 296 297
311 311 309 305 303 305 310 307 305 293 283 299 299 298 296 298 298 300 300 301 299 293 292 292 295 294 293 295 294 295 291 289 285 282 278 284 283 283 286 290 291 294 297 300 299
310 311 307 305 298 304 306 304 292 287 299 296 296 298 296 295 295 296 295 292 290 285 285 291 291 295 296 291 293 291 285 278 278 277 279 286 284 284 290 294 295 295 298 299 298
309 307 306 305 303 304 306 297 286 293 295 301 297 296 293 295 295 296 293 289 293 290 286 284 284 294 298 294 289 287 286 281 276 276 281 287 282 287 294 297 298 298 297 298 297
306 302 300 306 306 304 300 289 288 296 299 297 297 291 291 294 293 293 291 291 293 292 286 285 286 296 297 298 295 289 286 289 283 284 277 282 287 292 294 295 297 297 299 297 298
300 297 300 308 305 305 295 289 295 300 300 299 290 293 288 290 290 290 290 295 295 296 293 289 283 293 296 297 297 293 294 284 283 278 277 281 282 284 289 291 294 295 295 297 299
295 294 302 309 309 300 290 293 297 302 301 297 293 291 291 290 290 290 291 295 297 296 295 290 287 287 292 291 289 289 288 288 287 285 280 278 279 289 289 290 291 293 296 297 299
294 291 302 306 296 295 292 297 299 299 301 299 298 294 291 292 289 290 291 294 297 296 290 291 287 283 287 293 294 291 289 287 278 278 285 281 280 292 291 292 293 293 295 298 300
291 291 302 304 290 289 294 295 298 298 298 297 295 296 295 291 287 292 294 298 296 294 292 291 284 279 282 286 289 287 289 288 286 285 280 274 280 291 292 292 294 293 296 297 299
292 288 295 296 295 290 290 292 293 301 299 298 296 296 293 290 293 289 291 296 297 295 300 295 287 284 281 284 286 286 288 288 284 275 279 281 283 288 290 293 295 295 298 299 301
297 293 294 286 292 291 294 292 291 292 298 297 294 294 292 286 289 289 292 292 295 297 292 289 284 286 287 288 289 288 287 287 283 284 279 283 283 287 292 294 295 297 298 300 301
295 294 296 293 294 290 291 291 291 294 293 291 291 293 293 289 290 288 290 288 288 292 287 285 280 282 282 285 286 285 287 286 286 286 285 286 287 296 297 297 296 297 298 299 300
299 300 295 293 292 291 291 292 293 294 295 295 294 292 291 293 295 294 291 291 291 289 286 283 280 279 278 284 285 280 284 286 288 291 290 285 289 292 293 296 296 295 296 298 299

GFSSW_sfc_thetae_090.txt.gz
Theta_e
312 312 312 313 312 313 313 312 312 312 313 313 313 313 314 315 314 306 299 305 312 322 323 304 299 299 300 297 299 299 289 288 291 294 297 301 298 301 305 303 305 308 310 314 315
312 312 312 312 312 312 311 312 312 312 312 313 313 313 314 314 306 301 311 318 327 327 305 298 294 296 293 295 296 294 288 290 295 296 297 298 298 300 300 301 301 305 313 313 313
312 312 312 312 312 312 312 311 311 312 312 311 313 314 314 313 299 306 327 323 327 328 301 299 304 298 290 292 294 292 290 294 296 298 299 298 298 300 299 298 301 302 306 311 311
312 312 312 312 312 311 311 311 311 311 311 311 311 313 314 306 292 304 332 326 329 312 302 305 301 290 288 289 292 289 295 296 296 299 297 297 300 298 299 301 304 306 308 310 310
312 311 311 311 312 311 311 311 311 311 311 311 312 313 304 291 293 308 331 329 313 305 304 304 299 292 288 288 290 288 291 294 295 294 295 297 296 296 296 302 304 305 305 309 310
312 312 311 311 311 311 311 311 311 311 312 312 312 313 300 284 294 310 318 309 306 304 305 304 299 298 292 290 289 292 292 293 294 294 294 293 295 295 297 301 302 302 302 304 307
314 312 311 311 311 311 311 310 311 312 312 313 313 311 299 290 306 310 310 305 306 305 304 305 303 296 294 291 292 292 288 291 292 294 293 293 292 293 298 299 299 300 301 302 302
314 313 312 312 311 312 312 312 313 313 313 314 314 305 292 302 306 304 307 304 306 306 305 305 301 295 292 292 292 288 286 283 289 292 295 294 288 295 297 296 296 298 299 300 302
314 314 313 312 312 312 312 312 313 314 315 315 303 297 295 312 308 311 308 303 305 306 305 309 298 292 292 287 284 285 280 282 288 292 292 291 287 295 297 296 295 296 297 298 298
314 313 313 312 312 311 311 312 314 314 315 313 309 296 300 302 310 309 306 306 303 302 298 296 291 288 285 285 279 281 282 285 285 291 290 289 288 293 295 294 295 295 296 296 297
314 313 313 313 312 311 305 303 299 297 304 299 299 297 302 308 312 303 306 304 302 297 289 291 287 284 287 288 289 287 286 285 289 293 289 289 289 291 294 293 293 295 296 296 297
314 313 313 313 312 310 302 298 302 302 296 304 304 302 305 307 302 306 304 298 295 290 291 288 285 290 291 291 289 288 285 285 289 292 289 288 288 291 292 293 294 295 296 296 297
312 312 313 312 311 304 301 304 307 304 294 298 303 302 303 304 300 302 300 297 293 289 289 286 290 294 292 290 289 287 285 286 287 290 289 288 286 289 293 293 295 296 296 297 297
311 312 312 310 304 304 301 309 308 304 289 293 298 302 304 304 299 308 304 299 293 291 290 289 293 292 289 289 289 285 291 291 289 286 281 287 282 285 289 291 293 295 294 295 296
311 312 311 309 298 298 305 307 306 304 282 298 298 307 304 300 299 300 304 299 293 292 291 289 289 288 288 290 292 288 292 290 289 285 281 283 279 283 288 288 291 293 294 295 296
311 312 311 304 299 302 305 305 305 293 283 298 299 297 298 299 298 298 299 300 299 292 291 291 293 292 291 294 293 294 289 287 284 281 277 283 281 282 285 288 291 295 296 297 298
310 310 308 305 297 301 301 302 289 286 298 294 294 297 295 294 295 295 293 292 289 284 284 289 292 293 295 290 291 289 284 278 277 277 279 285 283 283 289 293 294 294 297 299 299
308 307 305 305 301 301 302 295 284 292 295 300 298 297 294 295 295 295 292 289 291 289 285 284 284 292 296 292 289 288 286 280 275 276 280 285 280 285 293 296 297 298 297 298 298
306 300 298 303 304 301 297 286 286 294 297 296 297 291 291 294 293 293 292 291 292 291 285 283 285 295 297 297 294 288 283 288 282 282 274 281 285 291 294 294 295 294 295 295 296
299 295 299 304 304 302 291 287 294 299 299 297 291 293 288 290 291 291 290 295 295 295 293 289 283 292 294 296 295 291 292 284 283 277 276 279 281 283 289 290 292 292 293 295 296
295 294 301 303 304 297 289 291 295 301 301 296 293 292 292 290 291 290 291 294 297 295 294 290 286 287 292 290 288 288 286 288 287 286 277 274 279 289 289 290 289 290 293 293 295
294 291 303 304 295 291 289 293 297 299 302 299 298 295 292 292 290 290 291 294 297 295 289 291 288 282 286 291 293 290 288 287 282 278 281 280 280 292 290 290 290 291 294 297 298
291 291 300 301 289 288 292 294 296 296 298 297 295 296 295 291 288 292 294 298 296 294 292 291 283 279 281 286 288 286 289 288 285 282 279 278 280 290 290 290 294 294 296 298 299
292 288 292 293 292 291 290 290 291 298 298 298 296 297 293 291 293 289 291 295 297 295 302 296 286 283 280 283 286 285 288 288 285 279 281 281 284 288 288 291 293 294 296 297 298
293 291 292 285 289 290 292 292 290 291 297 297 293 294 292 289 289 289 292 293 296 297 294 289 282 285 286 288 287 286 287 287 283 285 280 284 282 286 290 292 294 295 296 296 297
291 289 291 290 293 292 292 291 290 292 294 292 291 293 293 290 290 289 291 291 288 291 289 285 280 282 282 286 285 282 285 286 286 286 284 284 284 291 294 295 295 294 294 294 295
298 297 293 290 291 290 291 291 292 294 294 295 294 290 290 293 296 294 293 292 291 287 285 282 281 278 277 283 283 279 283 284 285 288 287 283 287 291 292 293 292 293 294 293 296

GFSSW_sfc_thetae_093.txt.gz
Theta_e
314 313 313 312 312 312 313 312 312 312 312 313 314 314 314 315 313 308 300 308 315 323 321 308 304 305 307 304 307 306 300 296 298 299 301 306 306 310 310 308 310 311 312 315 321
312 313 313 313 312 312 312 312 312 312 312 313 312 314 314 313 308 303 312 316 323 323 310 304 301 302 302 302 304 303 298 298 302 304 303 305 304 305 305 306 307 309 313 316 322
312 312 313 313 313 312 312 312 312 311 311 311 311 311 313 313 304 310 326 321 325 325 307 303 303 301 299 302 301 300 298 300 302 304 305 303 303 306 304 303 307 306 309 313 314
313 313 312 312 312 312 311 311 311 311 311 311 311 311 313 309 299 309 331 325 327 316 307 309 307 300 298 297 301 298 301 302 302 304 303 301 303 302 304 306 309 309 311 311 312
314 313 312 311 311 312 311 311 311 311 311 311 311 312 309 298 298 318 330 329 320 307 307 309 304 299 297 297 297 296 298 299 301 301 301 301 301 302 302 307 309 309 309 310 312
314 313 312 312 311 311 311 310 310 310 311 312 312 312 307 291 302 321 323 314 309 309 310 310 306 305 301 299 299 300 298 300 301 301 301 299 301 301 303 307 307 308 309 310 312
315 314 313 313 312 311 312 311 310 311 312 313 312 312 303 295 310 320 316 309 310 310 309 311 309 303 303 299 301 299 297 299 300 302 301 300 298 298 305 304 305 306 307 308 310
315 314 313 313 313 312 312 313 312 312 313 313 314 311 297 304 310 310 314 309 309 310 310 310 308 304 301 301 298 296 295 293 298 299 300 300 295 301 304 303 303 304 305 306 309
315 314 314 313 313 313 312 312 312 312 314 314 310 304 299 314 309 313 313 307 308 309 310 310 306 300 300 296 294 293 290 290 295 299 298 297 295 302 306 304 303 305 306 306 308
314 314 314 314 313 313 311 313 314 315 314 313 311 302 304 304 311 311 311 309 307 307 303 302 301 298 296 295 288 289 290 292 292 297 298 297 297 301 304 303 303 304 306 307 308
314 313 313 314 314 312 309 310 306 304 309 305 304 299 303 310 314 309 309 307 306 303 297 298 296 293 295 296 295 293 292 291 295 299 295 297 297 300 303 302 303 305 306 308 309
312 313 313 313 313 312 307 304 307 308 300 306 307 305 307 308 303 306 309 303 301 296 297 296 293 298 297 296 294 293 292 292 296 298 297 297 296 300 301 302 304 304 306 307 309
311 312 313 312 310 308 305 306 311 310 300 301 305 304 306 307 302 303 306 302 299 296 295 294 295 297 295 294 293 294 292 293 293 296 297 295 295 297 301 301 303 305 306 307 308
310 311 312 311 306 306 305 311 312 310 294 297 300 304 306 306 300 309 306 303 298 295 295 295 299 295 295 294 295 291 297 295 294 293 289 295 287 296 299 300 301 304 306 306 306
310 311 311 310 307 302 307 310 310 309 285 299 301 310 307 302 303 304 308 303 297 296 296 294 295 294 293 295 296 294 297 295 295 293 291 293 289 293 296 297 300 303 304 306 308
309 310 309 306 305 307 309 308 310 295 285 297 301 299 299 302 301 302 304 306 303 298 297 297 299 297 297 298 298 298 296 295 292 292 286 292 291 292 295 297 298 301 305 305 306
309 309 307 308 303 306 306 308 294 288 299 295 297 299 298 297 299 299 297 298 295 291 292 296 296 299 299 295 299 296 293 286 285 285 285 292 289 292 298 300 301 302 302 304 306
307 307 306 308 308 307 307 300 286 292 295 301 300 298 294 296 296 297 295 293 297 295 292 289 287 295 298 296 295 294 294 288 281 283 286 293 287 293 301 303 303 301 302 303 304
305 305 305 307 309 307 304 291 290 295 298 296 298 293 295 298 297 296 294 293 296 296 291 289 289 297 298 299 298 294 291 296 290 291 286 289 293 297 301 301 300 300 301 302 304
302 301 305 308 309 307 299 291 295 299 300 299 292 295 290 293 293 294 293 298 296 298 299 294 288 295 297 298 298 295 298 290 291 282 281 287 289 289 295 297 299 299 300 302 304
302 301 307 308 309 305 296 294 297 302 302 298 294 293 293 292 292 291 292 296 297 297 297 295 293 292 295 293 293 293 292 293 292 290 283 282 287 297 297 298 297 298 300 302 305
299 298 308 308 302 297 295 295 297 299 302 299 299 297 294 293 291 291 291 295 300 298 293 297 293 288 290 297 296 295 293 293 289 286 288 286 286 299 300 298 298 299 302 304 305
297 297 307 307 294 293 296 296 297 297 299 298 297 299 298 293 289 293 294 299 300 297 294 295 290 285 287 291 293 292 294 294 292 292 287 284 287 298 297 298 299 300 303 303 304
299 294 299 300 298 294 292 293 293 298 298 299 297 298 295 292 294 291 292 296 298 298 300 299 292 288 285 288 291 288 291 293 292 287 288 288 290 294 296 296 298 301 303 302 302
300 294 295 290 292 293 293 293 291 291 297 298 294 295 294 290 291 291 293 294 297 299 297 294 288 290 290 291 290 289 289 290 289 290 287 289 289 293 295 296 299 302 301 300 300
298 295 296 293 293 292 292 291 290 292 293 292 291 294 293 290 291 289 291 291 291 294 292 294 287 289 286 289 288 285 287 288 289 290 290 290 288 296 298 300 300 300 300 299 299
302 301 297 292 292 290 291 291 291 292 293 296 294 292 290 292 295 296 297 296 293 290 289 289 287 286 281 286 286 283 287 288 288 289 289 286 292 298 298 299 300 300 300 299 299

GFSSW_sfc_thetae_096.txt.gz
Theta_e
314 314 314 314 313 313 313 313 312 312 313 313 314 313 315 315 314 312 305 310 316 321 322 314 310 310 311 310 312 313 302 301 301 302 304 310 309 313 314 312 313 315 316 319 321
315 314 313 314 314 314 313 313 312 312 312 312 312 312 314 314 312 307 319 316 321 324 314 310 306 308 307 308 310 307 302 302 305 307 306 308 308 309 308 309 310 312 316 319 319
315 315 314 313 313 313 313 312 312 312 312 312 312 312 312 315 309 313 325 321 326 326 313 311 310 308 305 307 307 306 302 306 306 307 307 306 307 309 307 306 310 310 313 316 317
314 315 314 312 312 312 312 312 312 312 312 312 312 312 313 313 301 315 330 325 329 319 311 309 307 304 304 303 307 302 306 306 306 307 307 306 308 306 306 309 312 313 314 315 316
315 315 314 313 312 312 311 311 312 312 312 312 312 312 313 304 303 326 328 326 326 315 308 309 305 305 302 304 304 303 304 305 306 306 305 306 304 305 306 310 312 312 313 314 315
316 315 314 314 313 312 311 311 311 311 311 312 312 312 310 297 308 325 320 322 316 310 312 312 308 307 304 303 302 304 304 304 305 306 306 303 305 306 307 310 310 311 312 313 314
315 316 315 314 313 313 312 312 311 311 312 313 312 313 306 302 312 324 320 314 313 314 312 313 311 307 307 303 306 304 301 304 305 306 304 306 302 302 308 310 308 310 311 312 314
315 315 315 315 314 313 313 313 312 312 312 313 313 313 304 308 312 317 320 312 314 315 314 314 312 308 307 307 303 301 301 298 303 303 304 303 298 305 308 307 307 308 309 310 312
314 314 314 314 314 313 313 312 312 312 313 314 314 309 305 314 308 312 319 311 311 311 313 313 311 306 305 301 299 300 295 297 298 303 302 302 299 305 308 308 307 309 310 310 312
313 313 313 314 314 314 312 314 314 315 317 315 313 307 312 306 310 312 316 314 309 310 308 308 306 302 302 299 293 295 295 296 297 301 302 301 301 305 307 307 308 309 310 311 312
312 312 313 313 314 313 312 316 313 311 314 308 308 307 307 312 317 311 314 312 311 309 301 305 300 297 301 301 300 298 296 296 299 303 300 301 301 303 307 307 307 308 309 310 312
310 311 312 313 312 311 313 309 311 311 304 311 310 310 311 312 307 310 314 307 305 301 304 301 297 302 303 301 298 298 296 297 300 302 301 301 300 304 306 307 308 308 309 310 312
310 310 311 312 311 311 312 311 316 315 304 305 307 307 308 311 306 308 309 308 304 301 301 298 300 301 300 299 297 297 296 297 297 301 302 300 299 302 305 307 308 309 311 311 311
309 309 310 310 307 313 309 316 317 316 300 301 303 307 308 308 303 311 311 307 303 299 301 300 303 300 298 297 299 295 301 299 298 297 293 301 291 300 303 304 306 308 309 311 311
309 309 309 308 310 309 313 316 318 314 290 303 304 313 308 304 306 305 311 306 300 299 300 297 299 298 297 298 301 297 301 299 299 297 297 297 294 299 303 301 304 307 309 310 312
309 309 309 311 312 314 315 314 314 299 289 300 305 304 302 305 302 305 306 308 306 301 301 300 305 301 301 302 301 302 299 300 300 298 291 296 295 296 300 302 304 306 308 309 309
308 309 309 314 311 313 313 310 298 291 301 298 299 302 301 300 302 302 301 300 297 294 295 299 300 303 304 299 303 301 298 291 290 291 290 299 295 298 303 304 306 306 307 308 309
307 307 308 314 316 314 313 304 291 294 297 303 302 301 299 300 300 300 298 297 301 299 296 293 291 300 303 301 298 300 299 292 286 288 291 298 292 298 304 306 308 307 306 307 309
305 318 316 315 317 316 308 295 294 297 300 298 301 298 298 301 300 300 299 298 299 299 292 293 293 300 301 303 302 298 294 301 294 296 291 294 298 303 305 304 306 306 305 306 308
310 314 312 316 319 314 304 293 297 302 302 301 295 298 294 296 296 298 298 301 299 300 302 297 291 299 300 301 302 299 301 293 294 286 285 291 292 294 299 302 304 304 304 306 307
312 310 313 317 317 310 300 299 299 303 304 300 298 297 297 296 297 295 295 300 302 301 302 298 294 296 300 296 295 296 295 297 297 294 288 285 290 301 300 303 303 304 305 306 306
311 305 314 318 308 309 304 300 299 301 304 302 302 300 299 298 297 295 295 299 302 301 295 298 294 292 295 302 301 299 296 297 293 290 293 291 291 304 304 305 304 304 305 306 307
306 307 316 315 302 303 303 300 301 300 301 301 299 301 301 298 293 296 298 301 302 300 295 296 292 288 291 297 299 295 297 298 297 295 291 288 291 303 303 302 304 304 304 305 308
306 302 307 308 306 301 298 299 297 301 300 301 300 301 298 294 297 295 295 299 300 299 301 298 293 292 287 292 295 292 294 296 295 290 291 290 294 299 302 302 302 303 303 307 308
305 300 301 299 299 299 299 297 294 293 299 300 297 297 295 291 293 293 295 297 300 301 299 294 288 293 294 295 294 293 293 293 291 293 289 293 294 298 300 300 301 303 306 306 306
302 301 303 300 297 297 295 295 292 293 293 293 293 295 296 291 292 290 293 294 292 298 297 296 288 292 290 293 293 290 292 291 292 292 292 293 293 300 301 302 303 304 305 305 305
308 308 303 296 295 296 296 294 293 295 296 297 295 293 293 295 297 298 300 299 296 293 292 292 291 289 286 291 289 286 290 291 292 294 293 289 295 300 301 301 301 305 305 304 305

GFSSW_sfc_thetae_099.txt.gz
Theta_e
317 316 315 315 315 315 314 313 314 313 313 314 314 314 314 315 315 314 307 313 317 325 321 316 313 312 312 311 314 314 305 302 303 305 307 313 311 315 318 315 317 319 318 322 323
316 316 316 315 314 314 314 313 313 313 313 313 313 313 313 314 313 308 321 324 325 325 314 313 309 310 308 309 311 308 304 304 309 309 309 311 311 312 312 312 312 315 319 321 322
317 316 316 314 314 314 313 313 313 313 313 313 313 313 314 315 311 313 328 327 326 323 317 315 313 310 307 309 309 309 303 308 309 309 310 309 309 312 309 308 311 312 315 319 320
316 317 316 315 313 313 313 313 313 313 313 313 312 313 314 315 304 322 326 324 328 319 315 311 310 306 306 305 309 305 308 309 310 310 309 307 309 308 310 310 314 315 316 317 317
316 316 316 315 315 314 312 312 313 313 312 313 313 313 314 309 307 329 327 328 317 319 312 310 307 307 304 307 308 306 307 308 309 309 309 309 307 307 308 311 313 314 314 315 316
316 316 315 315 315 314 313 312 312 312 312 313 314 312 313 302 312 325 318 321 322 318 310 312 310 310 307 307 306 308 307 307 308 308 308 306 306 308 309 312 312 312 313 313 315
314 315 315 315 315 315 314 314 312 312 312 314 315 314 310 306 312 325 321 319 318 313 312 316 314 309 309 305 309 307 303 306 306 307 306 308 304 305 310 312 311 311 313 314 315
314 314 314 315 315 315 314 314 313 313 313 315 315 316 310 313 314 320 322 316 315 318 317 316 315 311 309 311 306 304 304 300 306 307 308 306 300 308 312 310 310 310 311 312 314
313 313 313 313 314 315 314 314 313 313 314 315 315 315 309 311 307 313 322 313 314 315 316 314 313 309 309 303 302 303 297 300 302 307 305 304 301 307 311 310 309 311 311 312 314
312 312 312 313 313 313 313 314 314 314 315 318 317 310 314 308 311 309 319 317 311 311 310 310 308 305 304 302 294 298 299 300 300 304 304 303 302 306 309 309 309 311 312 312 313
312 311 311 312 313 312 312 317 315 311 315 312 312 311 310 315 314 310 315 314 312 309 303 308 302 300 302 304 303 302 300 300 302 305 303 303 303 306 309 309 309 310 311 312 313
311 311 311 311 312 312 315 311 313 314 305 313 313 312 314 314 308 309 315 308 307 303 306 304 300 305 306 305 303 301 299 299 302 305 304 303 302 306 308 309 310 310 311 312 314
311 311 310 311 310 311 314 314 318 319 308 309 310 309 309 311 306 308 311 309 305 303 304 301 304 304 303 302 300 301 299 299 299 303 305 303 300 303 307 309 310 311 312 313 313
311 310 310 309 308 319 313 318 319 320 303 304 305 309 310 310 304 313 311 308 306 302 304 303 306 303 301 299 302 297 303 301 300 298 295 304 294 303 306 307 309 311 312 312 313
311 310 309 309 312 313 316 320 320 318 292 306 307 315 311 306 307 308 314 308 301 301 301 299 302 301 300 301 303 299 303 302 301 299 299 299 296 301 306 305 307 310 311 313 315
310 309 309 313 313 317 320 318 316 300 291 302 307 306 304 306 305 308 308 311 308 303 303 300 305 303 302 304 303 304 301 301 302 299 293 298 298 299 303 306 308 311 310 312 313
309 309 309 317 315 319 319 312 300 295 303 300 302 305 305 303 303 305 303 302 299 296 296 299 300 304 305 301 304 303 299 292 292 292 292 301 299 301 306 308 308 308 310 312 313
307 306 313 318 321 319 315 305 295 298 300 306 304 304 301 303 303 303 302 300 304 302 298 295 294 302 305 303 300 301 299 292 286 289 293 301 296 301 308 309 310 310 311 311 311
305 320 319 320 321 319 310 299 299 301 302 301 302 300 300 302 303 302 302 301 303 304 297 295 296 304 305 305 303 300 295 302 296 298 293 296 301 306 309 308 308 309 310 310 311
312 317 315 321 323 317 308 297 300 303 303 303 297 300 297 300 299 300 299 303 302 305 305 300 294 302 303 304 304 300 303 294 296 288 287 292 296 298 303 304 307 307 309 310 310
314 313 317 324 321 312 302 303 302 305 305 301 300 299 299 299 300 298 297 302 303 302 305 302 297 298 302 300 298 298 297 297 297 296 289 288 293 305 304 305 306 307 309 309 310
315 308 319 323 309 312 306 305 299 304 306 304 304 303 300 299 297 297 297 299 304 305 299 302 298 293 297 304 305 302 298 298 293 292 296 294 294 307 307 308 308 307 309 309 309
309 311 319 319 304 305 306 304 304 303 304 302 300 301 303 299 295 299 298 303 304 302 299 301 294 290 292 299 301 298 299 299 298 297 293 290 293 304 305 306 308 307 306 308 308
309 304 309 313 311 306 303 302 300 304 302 303 302 303 300 297 300 297 297 300 302 302 302 301 297 292 289 294 296 293 296 297 295 291 293 293 295 301 303 304 306 306 307 307 307
310 305 305 303 303 303 303 301 298 297 302 302 300 299 297 294 294 295 298 300 301 303 301 297 288 293 296 296 296 295 295 296 293 295 291 294 295 299 302 304 305 305 306 306 307
305 304 306 305 301 300 297 300 297 297 297 297 297 298 298 294 296 294 297 298 297 300 297 297 289 294 292 295 295 293 296 296 296 296 295 295 294 302 303 303 303 304 306 305 306
312 312 306 300 301 299 300 298 296 298 300 300 298 297 296 298 300 300 300 300 299 296 297 294 292 289 288 294 294 289 294 295 296 297 296 291 296 301 301 302 304 306 306 306 306